M I D A S
Marine Information and Data Acquisition System
Tripno 1697 of the Zeeleeuw from 2009-05-20 04:33:05 to 2009-05-20 14:30:48
Back to CruiseResearch ActivitiesStationsMapUnderway DataData graphs

EquipmentUnitsComment
TimeDGPSUTC
LatitudeDGPSDM.mWGS84
LongitudeDGPSDM.mWGS84
TemperatureSBE03/SBE38deg celciusITS90
ConductivitySBE21S/mITS90
SalinitySBE21 Practical Salinity Units
ChlorophylAChelsea fluorimeterg/lCalibrated in Aceton
Missing or incorrect values are displayed as -999
Sea surface data collected by the RV Zeeleeuw from 2009-05-20 04:02:50 to 2009-05-20 14:39:44
                                                                                    Next 1000 lines
Time Latitude Longitude Temperature Conductivity Salinity ChlorophylA
2009-05-20 04:02:59 51°13.664 2°55.96 -999 0.069787 0.367291 -0.687152
2009-05-20 04:03:04 51°13.664 2°55.96 -999 0.069787 0.367285 -0.687152
2009-05-20 04:03:09 51°13.663 2°55.96 -999 0.069787 0.367285 -0.687152
2009-05-20 04:03:14 51°13.663 2°55.959 -999 0.069787 0.367279 -0.687152
2009-05-20 04:03:19 51°13.664 2°55.959 -999 0.069787 0.367279 -0.687152
2009-05-20 04:03:24 51°13.664 2°55.959 -999 0.069787 0.367279 -0.687152
2009-05-20 04:03:29 51°13.664 2°55.959 -999 0.069787 0.367279 -0.687152
2009-05-20 04:03:34 51°13.664 2°55.959 -999 0.069787 0.367272 -0.652328
2009-05-20 04:03:38 51°13.664 2°55.959 -999 0.069787 0.367272 -0.687152
2009-05-20 04:03:43 51°13.664 2°55.96 -999 0.069787 0.367272 -0.652328
2009-05-20 04:03:48 51°13.664 2°55.959 -999 0.069787 0.367266 -0.687152
2009-05-20 04:03:53 51°13.664 2°55.959 -999 0.069787 0.367266 -0.687152
2009-05-20 04:03:58 51°13.663 2°55.959 -999 0.069787 0.367266 -0.687152
2009-05-20 04:04:02 51°13.663 2°55.959 -999 0.069787 0.367266 -0.687152
2009-05-20 04:04:08 51°13.664 2°55.961 -999 0.069787 0.36726 -0.687152
2009-05-20 04:04:13 51°13.664 2°55.961 -999 0.069787 0.36726 -0.652328
2009-05-20 04:04:18 51°13.664 2°55.961 -999 0.069787 0.36726 -0.652328
2009-05-20 04:04:22 51°13.664 2°55.961 -999 0.069787 0.36726 -0.652328
2009-05-20 04:04:28 51°13.664 2°55.961 -999 0.069787 0.36726 -0.687152
2009-05-20 04:04:33 51°13.664 2°55.961 -999 0.069787 0.367254 -0.687152
2009-05-20 04:04:38 51°13.664 2°55.961 -999 0.069787 0.367254 -0.687152
2009-05-20 04:04:42 51°13.664 2°55.961 -999 0.069787 0.367254 -0.687152
2009-05-20 04:04:48 51°13.664 2°55.961 -999 0.069787 0.367248 -0.652328
2009-05-20 04:04:53 51°13.663 2°55.96 -999 0.069787 0.367248 -0.652328
2009-05-20 04:04:58 51°13.663 2°55.96 -999 0.069787 0.367248 -0.652328
2009-05-20 04:05:02 51°13.663 2°55.96 -999 0.069787 0.367248 -0.652328
2009-05-20 04:05:06 51°13.663 2°55.96 -999 0.069787 0.367248 -0.687152
2009-05-20 04:05:13 51°13.663 2°55.96 -999 0.069787 0.367248 -0.687152
2009-05-20 04:05:18 51°13.663 2°55.96 -999 0.069787 0.367248 -0.687152
2009-05-20 04:05:23 51°13.663 2°55.96 -999 0.069787 0.367248 -0.687152
2009-05-20 04:05:27 51°13.663 2°55.96 -999 0.069787 0.367242 -0.652328
2009-05-20 04:05:33 51°13.663 2°55.96 -999 0.069787 0.367242 -0.652328
2009-05-20 04:05:38 51°13.663 2°55.96 -999 0.069787 0.367242 -0.652328
2009-05-20 04:05:43 51°13.663 2°55.96 -999 0.069787 0.367242 -0.652328
2009-05-20 04:05:47 51°13.663 2°55.96 -999 0.069787 0.367242 -0.687152
2009-05-20 04:05:53 51°13.663 2°55.96 -999 0.069787 0.367242 -0.687152
2009-05-20 04:05:58 51°13.663 2°55.96 -999 0.069787 0.367242 -0.687152
2009-05-20 04:06:02 51°13.663 2°55.96 -999 0.069787 0.367242 -0.687152
2009-05-20 04:06:07 51°13.663 2°55.96 -999 0.069787 0.367242 -0.652328
2009-05-20 04:06:13 51°13.663 2°55.96 -999 0.069787 0.367235 -0.687152
2009-05-20 04:06:18 51°13.663 2°55.96 -999 0.069787 0.367235 -0.687152
2009-05-20 04:06:22 51°13.663 2°55.96 -999 0.069787 0.367235 -0.687152
2009-05-20 04:06:28 51°13.663 2°55.96 -999 0.069787 0.367235 -0.687152
2009-05-20 04:06:33 51°13.663 2°55.96 -999 0.069787 0.367235 -0.687152
2009-05-20 04:06:38 51°13.663 2°55.96 -999 0.069787 0.367235 -0.652328
2009-05-20 04:06:42 51°13.663 2°55.96 -999 0.069787 0.367235 -0.687152
2009-05-20 04:06:48 51°13.663 2°55.96 -999 0.069787 0.367235 -0.687152
2009-05-20 04:06:53 51°13.663 2°55.96 -999 0.069787 0.367235 -0.687152
2009-05-20 04:06:58 51°13.663 2°55.96 -999 0.069787 0.367235 -0.687152
2009-05-20 04:07:02 51°13.663 2°55.96 -999 0.069787 0.367235 -0.687152
2009-05-20 04:07:07 51°13.663 2°55.96 -999 0.069787 0.367235 -0.687152
2009-05-20 04:07:13 51°13.663 2°55.96 -999 0.069787 0.367235 -0.687152
2009-05-20 04:07:18 51°13.663 2°55.96 -999 0.069787 0.367235 -0.687152
2009-05-20 04:07:22 51°13.663 2°55.96 -999 0.069787 0.367235 -0.687152
2009-05-20 04:07:26 51°13.663 2°55.96 -999 0.069787 0.367235 -0.687152
2009-05-20 04:07:33 51°13.663 2°55.96 -999 0.069787 0.367235 -0.687152
2009-05-20 04:07:38 51°13.663 2°55.96 -999 0.069787 0.367242 -0.687152
2009-05-20 04:07:43 51°13.663 2°55.96 -999 0.069787 0.367242 -0.687152
2009-05-20 04:07:48 51°13.663 2°55.959 -999 0.069787 0.367235 -0.687152
2009-05-20 04:07:53 51°13.663 2°55.959 -999 0.069787 0.367235 -0.687152
2009-05-20 04:07:58 51°13.663 2°55.959 -999 0.069787 0.367242 -0.687152
2009-05-20 04:08:03 51°13.663 2°55.959 -999 0.069787 0.367242 -0.687152
2009-05-20 04:08:07 51°13.662 2°55.959 -999 0.069787 0.367242 -0.687152
2009-05-20 04:08:13 51°13.662 2°55.959 -999 0.069787 0.367235 -0.687152
2009-05-20 04:08:18 51°13.662 2°55.959 -999 0.069787 0.367242 -0.687152
2009-05-20 04:08:23 51°13.662 2°55.959 -999 0.069787 0.367242 -0.687152
2009-05-20 04:08:27 51°13.662 2°55.959 -999 0.069787 0.367235 -0.687152
2009-05-20 04:08:33 51°13.662 2°55.959 -999 0.069787 0.367242 -0.687152
2009-05-20 04:08:38 51°13.662 2°55.959 -999 0.069787 0.367242 -0.687152
2009-05-20 04:08:42 51°13.662 2°55.96 -999 0.069787 0.367248 -0.687152
2009-05-20 04:08:47 51°13.663 2°55.96 -999 0.069787 0.367248 -0.687152
2009-05-20 04:08:53 51°13.662 2°55.96 -999 0.069787 0.367248 -0.687152
2009-05-20 04:08:58 51°13.662 2°55.96 -999 0.069787 0.367242 -0.687152
2009-05-20 04:09:02 51°13.662 2°55.96 -999 0.069787 0.367248 -0.687152
2009-05-20 04:09:07 51°13.662 2°55.959 -999 0.069787 0.367248 -0.687152
2009-05-20 04:09:13 51°13.662 2°55.959 -999 0.069787 0.367248 -0.687152
2009-05-20 04:09:18 51°13.662 2°55.959 -999 0.069787 0.367248 -0.687152
2009-05-20 04:09:22 51°13.661 2°55.959 -999 0.069787 0.367248 -0.687152
2009-05-20 04:09:27 51°13.661 2°55.958 -999 0.069787 0.367248 -0.652328
2009-05-20 04:09:33 51°13.661 2°55.958 -999 0.069787 0.367248 -0.687152
2009-05-20 04:09:38 51°13.661 2°55.958 -999 0.069787 0.367248 -0.652328
2009-05-20 04:09:42 51°13.661 2°55.958 -999 0.069787 0.367254 -0.687152
2009-05-20 04:09:47 51°13.661 2°55.959 -999 0.069787 0.367254 -0.687152
2009-05-20 04:09:53 51°13.661 2°55.959 -999 0.069787 0.367254 -0.687152
2009-05-20 04:09:58 51°13.661 2°55.959 -999 0.069787 0.367254 -0.687152
2009-05-20 04:10:02 51°13.661 2°55.959 -999 0.069787 0.36726 -0.687152
2009-05-20 04:10:07 51°13.662 2°55.959 -999 0.069787 0.36726 -0.687152
2009-05-20 04:10:13 51°13.661 2°55.959 -999 0.069787 0.36726 -0.687152
2009-05-20 04:10:18 51°13.661 2°55.959 -999 0.069787 0.36726 -0.652328
2009-05-20 04:10:22 51°13.661 2°55.959 -999 0.069787 0.36726 -0.652328
2009-05-20 04:10:28 51°13.662 2°55.959 -999 0.069787 0.36726 -0.687152
2009-05-20 04:10:32 51°13.662 2°55.959 -999 0.069787 0.36726 -0.687152
2009-05-20 04:10:38 51°13.662 2°55.959 -999 0.069787 0.36726 -0.687152
2009-05-20 04:10:43 51°13.662 2°55.959 -999 0.069787 0.367266 -0.687152
2009-05-20 04:10:48 51°13.662 2°55.96 -999 0.069787 0.367266 -0.687152
2009-05-20 04:10:53 51°13.662 2°55.96 -999 0.069787 0.367266 -0.687152
2009-05-20 04:10:58 51°13.662 2°55.96 -999 0.069787 0.367266 -0.687152
2009-05-20 04:11:02 51°13.662 2°55.96 -999 0.069787 0.367272 -0.687152
2009-05-20 04:11:08 51°13.662 2°55.961 -999 0.069787 0.367272 -0.687152
2009-05-20 04:11:13 51°13.662 2°55.961 -999 0.069787 0.367279 -0.687152
2009-05-20 04:11:18 51°13.663 2°55.961 -999 0.069787 0.367279 -0.687152
2009-05-20 04:11:22 51°13.663 2°55.961 -999 0.069787 0.367279 -0.687152
2009-05-20 04:11:27 51°13.663 2°55.961 -999 0.069787 0.367279 -0.687152
2009-05-20 04:11:33 51°13.663 2°55.96 -999 0.069787 0.367279 -0.687152
2009-05-20 04:11:38 51°13.663 2°55.96 -999 0.069787 0.367279 -0.652328
2009-05-20 04:11:42 51°13.663 2°55.96 -999 0.069787 0.367279 -0.687152
2009-05-20 04:11:47 51°13.664 2°55.96 -999 0.069787 0.367279 -0.687152
2009-05-20 04:11:53 51°13.664 2°55.959 -999 0.069787 0.367279 -0.687152
2009-05-20 04:11:58 51°13.664 2°55.959 -999 0.069787 0.367285 -0.652328
2009-05-20 04:12:03 51°13.663 2°55.959 -999 0.069787 0.367285 -0.687152
2009-05-20 04:12:07 51°13.663 2°55.959 -999 0.069787 0.367285 -0.687152
2009-05-20 04:12:12 51°13.663 2°55.959 -999 0.069787 0.367291 -0.687152
2009-05-20 04:12:18 51°13.662 2°55.959 -999 0.069787 0.367291 -0.687152
2009-05-20 04:12:23 51°13.663 2°55.959 -999 0.069787 0.367291 -0.687152
2009-05-20 04:12:28 51°13.663 2°55.959 -999 0.069787 0.367291 -0.687152
2009-05-20 04:12:33 51°13.663 2°55.959 -999 0.069787 0.367297 -0.687152
2009-05-20 04:12:37 51°13.663 2°55.959 -999 0.069787 0.367297 -0.687152
2009-05-20 04:12:43 51°13.663 2°55.959 -999 0.069787 0.367297 -0.652328
2009-05-20 04:12:47 51°13.663 2°55.959 -999 0.069787 0.367303 -0.687152
2009-05-20 04:12:53 51°13.663 2°55.959 -999 0.069787 0.367303 -0.687152
2009-05-20 04:12:58 51°13.662 2°55.959 -999 0.069787 0.367303 -0.687152
2009-05-20 04:13:03 51°13.662 2°55.959 -999 0.069787 0.367303 -0.687152
2009-05-20 04:13:07 51°13.662 2°55.959 -999 0.069787 0.367303 -0.652328
2009-05-20 04:13:13 51°13.662 2°55.959 -999 0.069787 0.367303 -0.687152
2009-05-20 04:13:18 51°13.662 2°55.959 -999 0.069787 0.367309 -0.687152
2009-05-20 04:13:22 51°13.663 2°55.959 -999 0.069787 0.367309 -0.687152
2009-05-20 04:13:28 51°13.663 2°55.959 -999 0.069787 0.367309 -0.687152
2009-05-20 04:13:33 51°13.663 2°55.959 -999 0.069787 0.367316 -0.687152
2009-05-20 04:13:38 51°13.663 2°55.959 -999 0.069787 0.367316 -0.687152
2009-05-20 04:13:42 51°13.663 2°55.959 -999 0.069787 0.367322 -0.687152
2009-05-20 04:13:47 51°13.663 2°55.959 -999 0.069787 0.367322 -0.687152
2009-05-20 04:13:53 51°13.663 2°55.959 -999 0.069787 0.367322 -0.687152
2009-05-20 04:13:58 51°13.663 2°55.959 -999 0.069787 0.367322 -0.652328
2009-05-20 04:14:02 51°13.663 2°55.959 -999 0.069787 0.367328 -0.687152
2009-05-20 04:14:07 51°13.663 2°55.959 -999 0.069787 0.367328 -0.652328
2009-05-20 04:14:13 51°13.663 2°55.959 -999 0.069787 0.367328 -0.652328
2009-05-20 04:14:18 51°13.663 2°55.959 -999 0.069787 0.367328 -0.687152
2009-05-20 04:14:22 51°13.663 2°55.959 -999 0.069787 0.367328 -0.687152
2009-05-20 04:14:27 51°13.663 2°55.959 -999 0.069787 0.367334 -0.687152
2009-05-20 04:14:33 51°13.664 2°55.959 -999 0.069787 0.367334 -0.687152
2009-05-20 04:14:38 51°13.664 2°55.959 -999 0.069787 0.367334 -0.687152
2009-05-20 04:14:42 51°13.663 2°55.959 -999 0.069787 0.36734 -0.687152
2009-05-20 04:14:48 51°13.663 2°55.959 -999 0.069787 0.36734 -0.687152
2009-05-20 04:14:53 51°13.663 2°55.959 -999 0.069787 0.36734 -0.687152
2009-05-20 04:14:59 51°13.663 2°55.959 -999 0.069787 0.367346 -0.652328
2009-05-20 04:15:03 51°13.663 2°55.958 -999 0.069787 0.367346 -0.687152
2009-05-20 04:15:08 51°13.663 2°55.958 -999 0.069787 0.367346 -0.687152
2009-05-20 04:15:13 51°13.663 2°55.958 -999 0.069787 0.36734 -0.687152
2009-05-20 04:15:18 51°13.663 2°55.959 -999 0.069787 0.367334 -0.687152
2009-05-20 04:15:23 51°13.663 2°55.959 -999 0.069787 0.367334 -0.687152
2009-05-20 04:15:28 51°13.663 2°55.959 -999 0.069787 0.367334 -0.687152
2009-05-20 04:15:33 51°13.663 2°55.959 -999 0.069787 0.36734 -0.687152
2009-05-20 04:15:39 51°13.663 2°55.959 -999 0.069787 0.367346 -0.687152
2009-05-20 04:15:44 51°13.663 2°55.959 -999 0.069787 0.367353 -0.687152
2009-05-20 04:15:49 51°13.663 2°55.959 -999 0.069787 0.367365 -0.687152
2009-05-20 04:15:55 51°13.663 2°55.959 -999 0.069787 0.367365 -0.687152
2009-05-20 04:15:59 51°13.663 2°55.959 -999 0.069787 0.367371 -0.687152
2009-05-20 04:16:05 51°13.663 2°55.959 -999 0.069787 0.367371 -0.687152
2009-05-20 04:16:10 51°13.663 2°55.959 -999 0.069787 0.367377 -0.687152
2009-05-20 04:16:15 51°13.663 2°55.96 -999 0.069787 0.367383 -0.687152
2009-05-20 04:16:21 51°13.663 2°55.96 -999 0.069787 0.367383 -0.687152
2009-05-20 04:16:26 51°13.662 2°55.959 -999 0.069787 0.367383 -0.687152
2009-05-20 04:16:31 51°13.662 2°55.959 -999 0.069787 0.367383 -0.687152
2009-05-20 04:16:36 51°13.662 2°55.959 -999 0.069787 0.367377 -0.687152
2009-05-20 04:16:41 51°13.662 2°55.96 -999 0.069787 0.367383 -0.687152
2009-05-20 04:16:46 51°13.663 2°55.96 -999 0.069787 0.367383 -0.687152
2009-05-20 04:16:51 51°13.663 2°55.96 -999 0.069787 0.367377 -0.687152
2009-05-20 04:16:55 51°13.663 2°55.96 -999 0.069787 0.367377 -0.687152
2009-05-20 04:17:00 51°13.662 2°55.959 -999 0.069787 0.367383 -0.687152
2009-05-20 04:17:05 51°13.662 2°55.959 -999 0.069787 0.367383 -0.687152
2009-05-20 04:17:10 51°13.662 2°55.959 -999 0.069787 0.36739 -0.687152
2009-05-20 04:17:15 51°13.662 2°55.96 -999 0.069787 0.36739 -0.687152
2009-05-20 04:17:20 51°13.662 2°55.959 -999 0.069787 0.36739 -0.687152
2009-05-20 04:17:26 51°13.662 2°55.959 -999 0.069787 0.36739 -0.687152
2009-05-20 04:17:31 51°13.662 2°55.959 -999 0.069787 0.367396 -0.652328
2009-05-20 04:17:36 51°13.662 2°55.959 -999 0.069787 0.367396 -0.652328
2009-05-20 04:17:41 51°13.662 2°55.959 -999 0.069787 0.367402 -0.652328
2009-05-20 04:17:46 51°13.662 2°55.959 -999 0.069787 0.367402 -0.652328
2009-05-20 04:17:51 51°13.662 2°55.959 -999 0.069787 0.367408 -0.652328
2009-05-20 04:17:56 51°13.662 2°55.959 -999 0.069787 0.367408 -0.652328
2009-05-20 04:18:01 51°13.662 2°55.958 -999 0.069787 0.367408 -0.687152
2009-05-20 04:18:06 51°13.662 2°55.957 -999 0.069787 0.367408 -0.687152
2009-05-20 04:18:11 51°13.663 2°55.955 -999 0.069787 0.367402 -0.687152
2009-05-20 04:18:16 51°13.663 2°55.951 -999 0.069787 0.367402 -0.687152
2009-05-20 04:18:21 51°13.665 2°55.947 -999 0.069787 0.367396 -0.687152
2009-05-20 04:18:26 51°13.666 2°55.943 -999 0.069787 0.367396 -0.687152
2009-05-20 04:18:31 51°13.668 2°55.938 -999 0.069787 0.367402 -0.687152
2009-05-20 04:18:36 51°13.67 2°55.932 -999 0.069787 0.367396 -0.652328
2009-05-20 04:18:41 51°13.671 2°55.926 -999 0.069787 0.367402 -0.687152
2009-05-20 04:18:47 51°13.674 2°55.919 -999 0.069787 0.367414 -0.687152
2009-05-20 04:18:51 51°13.675 2°55.913 -999 0.069787 0.36742 -0.687152
2009-05-20 04:18:56 51°13.677 2°55.906 -999 0.069787 0.36742 -0.687152
2009-05-20 04:19:01 51°13.679 2°55.899 -999 0.069787 0.367427 -0.687152
2009-05-20 04:19:06 51°13.68 2°55.892 -999 0.069787 0.367433 -0.687152
2009-05-20 04:19:11 51°13.682 2°55.885 -999 0.069787 0.367439 -0.687152
2009-05-20 04:19:16 51°13.683 2°55.878 -999 0.069787 0.367439 -0.687152
2009-05-20 04:19:21 51°13.685 2°55.872 -999 0.069787 0.367445 -0.687152
2009-05-20 04:19:27 51°13.687 2°55.863 -999 0.069787 0.367445 -0.687152
2009-05-20 04:19:31 51°13.688 2°55.858 -999 0.069787 0.367445 -0.687152
2009-05-20 04:19:36 51°13.689 2°55.851 -999 0.069787 0.367445 -0.652328
2009-05-20 04:19:41 51°13.691 2°55.844 -999 0.069787 0.367451 -0.687152
2009-05-20 04:19:47 51°13.692 2°55.835 -999 0.069787 0.367451 -0.652328
2009-05-20 04:19:51 51°13.693 2°55.83 -999 0.069787 0.367457 -0.687152
2009-05-20 04:19:56 51°13.694 2°55.823 -999 0.069787 0.367457 -0.687152
2009-05-20 04:20:01 51°13.695 2°55.816 -999 0.069787 0.367457 -0.652328
2009-05-20 04:20:07 51°13.696 2°55.807 -999 0.069787 0.367457 -0.687152
2009-05-20 04:20:11 51°13.696 2°55.802 -999 0.069787 0.367457 -0.687152
2009-05-20 04:20:16 51°13.697 2°55.796 -999 0.069787 0.367457 -0.687152
2009-05-20 04:20:21 51°13.697 2°55.789 -999 0.069787 0.367457 -0.687152
2009-05-20 04:20:26 51°13.698 2°55.783 -999 0.069787 0.367457 -0.687152
2009-05-20 04:20:31 51°13.698 2°55.777 -999 0.069787 0.367457 -0.687152
2009-05-20 04:20:36 51°13.698 2°55.771 -999 0.069787 0.367464 -0.652328
2009-05-20 04:20:41 51°13.699 2°55.765 -999 0.069787 0.367464 -0.687152
2009-05-20 04:20:46 51°13.699 2°55.76 -999 0.069787 0.36747 -0.687152
2009-05-20 04:20:51 51°13.7 2°55.757 -999 0.069787 0.36747 -0.687152
2009-05-20 04:20:56 51°13.7 2°55.756 -999 0.069787 0.36747 -0.687152
2009-05-20 04:21:01 51°13.701 2°55.755 -999 0.069787 0.367482 -0.687152
2009-05-20 04:21:06 51°13.702 2°55.755 -999 0.069787 0.367488 -0.687152
2009-05-20 04:21:10 51°13.703 2°55.755 -999 0.069787 0.367488 -0.652328
2009-05-20 04:21:15 51°13.704 2°55.756 -999 0.069787 0.367495 -0.687152
2009-05-20 04:21:20 51°13.705 2°55.757 -999 0.069787 0.367495 -0.687152
2009-05-20 04:21:25 51°13.707 2°55.757 -999 0.069787 0.367495 -0.687152
2009-05-20 04:21:30 51°13.708 2°55.758 -999 0.069787 0.367495 -0.687152
2009-05-20 04:21:35 51°13.71 2°55.758 -999 0.069787 0.367501 -0.652328
2009-05-20 04:21:39 51°13.711 2°55.758 -999 0.069787 0.367501 -0.687152
2009-05-20 04:21:44 51°13.711 2°55.758 -999 0.069787 0.367507 -0.687152
2009-05-20 04:21:49 51°13.712 2°55.757 -999 0.069787 0.367513 -0.687152
2009-05-20 04:21:54 51°13.711 2°55.756 -999 0.069787 0.367513 -0.687152
2009-05-20 04:21:59 51°13.711 2°55.755 -999 0.069787 0.367519 -0.687152
2009-05-20 04:22:04 51°13.71 2°55.754 -999 0.069787 0.367519 -0.652328
2009-05-20 04:22:08 51°13.71 2°55.753 -999 0.069787 0.367513 -0.687152
2009-05-20 04:22:13 51°13.709 2°55.752 -999 0.069787 0.367519 -0.687152
2009-05-20 04:22:18 51°13.708 2°55.751 -999 0.069787 0.367519 -0.687152
2009-05-20 04:22:23 51°13.708 2°55.751 -999 0.069787 0.367519 -0.687152
2009-05-20 04:22:28 51°13.709 2°55.75 -999 0.069787 0.367513 -0.687152
2009-05-20 04:22:33 51°13.71 2°55.749 -999 0.069787 0.367519 -0.652328
2009-05-20 04:22:37 51°13.711 2°55.748 -999 0.069787 0.367525 -0.687152
2009-05-20 04:22:42 51°13.713 2°55.746 -999 0.069787 0.367525 -0.687152
2009-05-20 04:22:47 51°13.714 2°55.745 -999 0.069787 0.367532 -0.687152
2009-05-20 04:22:52 51°13.716 2°55.743 -999 0.069787 0.367532 -0.687152
2009-05-20 04:22:58 51°13.718 2°55.741 -999 0.069787 0.367538 -0.687152
2009-05-20 04:23:03 51°13.72 2°55.738 -999 0.069787 0.367544 -0.687152
2009-05-20 04:23:07 51°13.722 2°55.736 -999 0.069787 0.367544 -0.687152
2009-05-20 04:23:12 51°13.725 2°55.734 -999 0.069787 0.36755 -0.687152
2009-05-20 04:23:18 51°13.728 2°55.731 -999 0.069787 0.36755 -0.687152
2009-05-20 04:23:23 51°13.73 2°55.728 -999 0.069787 0.36755 -0.687152
2009-05-20 04:23:27 51°13.732 2°55.725 -999 0.069787 0.36755 -0.687152
2009-05-20 04:23:32 51°13.735 2°55.722 -999 0.069787 0.36755 -0.652328
2009-05-20 04:23:38 51°13.738 2°55.718 -999 0.069787 0.367544 -0.687152
2009-05-20 04:23:43 51°13.741 2°55.714 -999 0.069787 0.367544 -0.687152
2009-05-20 04:23:47 51°13.744 2°55.712 -999 0.069787 0.36755 -0.687152
2009-05-20 04:23:52 51°13.747 2°55.708 -999 0.069787 0.36755 -0.687152
2009-05-20 04:23:57 51°13.75 2°55.704 -999 0.069787 0.367556 -0.687152
2009-05-20 04:24:03 51°13.754 2°55.7 -999 0.069787 0.367556 -0.687152
2009-05-20 04:24:07 51°13.756 2°55.697 -999 0.069787 0.367562 -0.687152
2009-05-20 04:24:11 51°13.759 2°55.693 -999 0.069787 0.367569 -0.687152
2009-05-20 04:24:17 51°13.763 2°55.689 -999 0.069787 0.367575 -0.687152
2009-05-20 04:24:23 51°13.767 2°55.684 -999 0.069787 0.367575 -0.687152
2009-05-20 04:24:27 51°13.769 2°55.68 -999 0.069787 0.367575 -0.687152
2009-05-20 04:24:31 51°13.772 2°55.677 -999 0.069787 0.367581 -0.652328
2009-05-20 04:24:37 51°13.776 2°55.672 -999 0.069787 0.367581 -0.687152
2009-05-20 04:24:43 51°13.78 2°55.667 -999 0.069787 0.367587 -0.687152
2009-05-20 04:24:47 51°13.783 2°55.664 -999 0.069787 0.367593 -0.687152
2009-05-20 04:24:51 51°13.786 2°55.661 -999 0.069787 0.367593 -0.687152
2009-05-20 04:24:57 51°13.791 2°55.656 -999 0.069787 0.367593 -0.687152
2009-05-20 04:25:03 51°13.796 2°55.653 -999 0.069787 0.3676 -0.687152
2009-05-20 04:25:07 51°13.799 2°55.65 -999 0.069787 0.367606 -0.687152
2009-05-20 04:25:12 51°13.803 2°55.648 -999 0.069787 0.367606 -0.687152
2009-05-20 04:25:17 51°13.807 2°55.645 -999 0.069787 0.367612 -0.687152
2009-05-20 04:25:23 51°13.812 2°55.643 -999 0.069787 0.367612 -0.687152
2009-05-20 04:25:27 51°13.815 2°55.641 -999 0.069787 0.367612 -0.687152
2009-05-20 04:25:31 51°13.819 2°55.64 -999 0.069787 0.367618 -0.652328
2009-05-20 04:25:37 51°13.824 2°55.638 -999 0.069787 0.367624 -0.687152
2009-05-20 04:25:43 51°13.829 2°55.637 -999 0.069787 0.36763 -0.687152
2009-05-20 04:25:47 51°13.832 2°55.636 -999 0.069787 0.36763 -0.687152
2009-05-20 04:25:53 51°13.837 2°55.635 -999 0.069787 0.36763 -0.687152
2009-05-20 04:25:57 51°13.84 2°55.635 -999 0.069787 0.367637 -0.687152
2009-05-20 04:26:03 51°13.845 2°55.634 -999 0.069787 0.367637 -0.652328
2009-05-20 04:26:07 51°13.848 2°55.633 -999 0.069787 0.367637 -0.687152
2009-05-20 04:26:11 51°13.851 2°55.633 -999 0.069787 0.367637 -0.687152
2009-05-20 04:26:17 51°13.855 2°55.632 -999 0.069787 0.367637 -0.687152
2009-05-20 04:26:23 51°13.859 2°55.632 -999 0.069787 0.367637 -0.687152
2009-05-20 04:26:27 51°13.862 2°55.631 -999 0.069787 0.367643 -0.687152
2009-05-20 04:26:32 51°13.866 2°55.631 -999 0.069787 0.367643 -0.687152
2009-05-20 04:26:37 51°13.869 2°55.631 -999 0.069787 0.367649 -0.687152
2009-05-20 04:26:43 51°13.873 2°55.631 -999 0.069787 0.367649 -0.687152
2009-05-20 04:26:47 51°13.876 2°55.632 -999 0.069787 0.367649 -0.652328
2009-05-20 04:26:51 51°13.878 2°55.632 -999 0.069787 0.367649 -0.652328
2009-05-20 04:26:57 51°13.882 2°55.632 -999 0.069787 0.367655 -0.687152
2009-05-20 04:27:03 51°13.886 2°55.632 -999 0.069787 0.367655 -0.652328
2009-05-20 04:27:07 51°13.888 2°55.633 -999 0.069684 0.367102 -0.687152
2009-05-20 04:27:11 51°13.891 2°55.633 -999 0.069787 0.367661 -0.687152
2009-05-20 04:27:17 51°13.895 2°55.634 -999 0.069787 0.367661 -0.652328
2009-05-20 04:27:23 51°13.898 2°55.635 -999 0.069787 0.367661 -0.652328
2009-05-20 04:27:27 51°13.901 2°55.636 -999 0.069684 0.367114 -0.652328
2009-05-20 04:27:32 51°13.903 2°55.636 -999 0.069684 0.367114 -0.652328
2009-05-20 04:27:37 51°13.906 2°55.637 -999 0.069684 0.367114 -0.687152
2009-05-20 04:27:43 51°13.91 2°55.637 -999 0.069684 0.367121 -0.687152
2009-05-20 04:27:47 51°13.913 2°55.638 -999 0.069684 0.367127 -0.687152
2009-05-20 04:27:53 51°13.916 2°55.638 -999 0.069684 0.367127 -0.687152
2009-05-20 04:27:57 51°13.918 2°55.639 -999 0.069684 0.367127 -0.687152
2009-05-20 04:28:03 51°13.922 2°55.639 -999 0.069684 0.367127 -0.687152
2009-05-20 04:28:07 51°13.924 2°55.639 -999 0.069684 0.367133 -0.687152
2009-05-20 04:28:11 51°13.927 2°55.639 -999 0.069684 0.367133 -0.687152
2009-05-20 04:28:17 51°13.93 2°55.639 -999 0.069684 0.367139 -0.687152
2009-05-20 04:28:23 51°13.933 2°55.639 -999 0.069684 0.367139 -0.687152
2009-05-20 04:28:27 51°13.935 2°55.639 -999 0.069684 0.367139 -0.687152
2009-05-20 04:28:32 51°13.938 2°55.639 -999 0.069684 0.367145 -0.687152
2009-05-20 04:28:37 51°13.941 2°55.639 -999 0.069684 0.367145 -0.687152
2009-05-20 04:28:43 51°13.944 2°55.638 -999 0.069684 0.367151 -0.687152
2009-05-20 04:28:47 51°13.946 2°55.638 -999 0.069684 0.367151 -0.652328
2009-05-20 04:28:51 51°13.949 2°55.637 -999 0.069684 0.367151 -0.652328
2009-05-20 04:28:57 51°13.952 2°55.636 -999 0.069684 0.367151 -0.687152
2009-05-20 04:29:03 51°13.955 2°55.636 -999 0.069684 0.367158 -0.687152
2009-05-20 04:29:07 51°13.956 2°55.635 -999 0.069684 0.367158 -0.687152
2009-05-20 04:29:11 51°13.958 2°55.635 -999 0.069684 0.367164 -0.687152
2009-05-20 04:29:17 51°13.959 2°55.634 -999 0.069684 0.367164 -0.687152
2009-05-20 04:29:23 51°13.96 2°55.634 -999 0.069684 0.367164 -0.687152
2009-05-20 04:29:27 51°13.961 2°55.635 -999 0.069684 0.36717 -0.687152
2009-05-20 04:29:31 51°13.961 2°55.634 -999 0.069684 0.36717 -0.687152
2009-05-20 04:29:37 51°13.961 2°55.634 -999 0.069684 0.367176 -0.687152
2009-05-20 04:29:43 51°13.96 2°55.635 -999 0.069684 0.367176 -0.687152
2009-05-20 04:29:47 51°13.96 2°55.635 -999 0.069684 0.367182 -0.687152
2009-05-20 04:29:51 51°13.959 2°55.635 -999 0.069684 0.367182 -0.687152
2009-05-20 04:29:57 51°13.958 2°55.636 -999 0.069684 0.367189 -0.687152
2009-05-20 04:30:03 51°13.957 2°55.637 -999 0.069684 0.367189 -0.687152
2009-05-20 04:30:07 51°13.957 2°55.637 -999 0.069684 0.367189 -0.687152
2009-05-20 04:30:13 51°13.956 2°55.637 -999 0.069684 0.367195 -0.687152
2009-05-20 04:30:18 51°13.955 2°55.638 -999 0.069684 0.367195 -0.687152
2009-05-20 04:30:23 51°13.955 2°55.638 -999 0.069684 0.367195 -0.687152
2009-05-20 04:30:28 51°13.955 2°55.638 -999 0.069684 0.367201 -0.687152
2009-05-20 04:30:33 51°13.955 2°55.637 -999 0.069684 0.367201 -0.652328
2009-05-20 04:30:38 51°13.956 2°55.637 -999 0.069684 0.367207 -0.652328
2009-05-20 04:30:43 51°13.957 2°55.637 -999 0.069684 0.367213 -0.687152
2009-05-20 04:30:47 51°13.958 2°55.636 -999 0.069684 0.367213 -0.652328
2009-05-20 04:30:52 51°13.96 2°55.634 -999 0.069684 0.367213 -0.652328
2009-05-20 04:30:57 51°13.962 2°55.633 -999 0.069684 0.367219 -0.687152
2009-05-20 04:31:03 51°13.966 2°55.63 -999 0.069684 0.367219 -0.687152
2009-05-20 04:31:07 51°13.97 2°55.627 -999 0.069684 0.367226 -0.687152
2009-05-20 04:31:11 51°13.973 2°55.623 -999 0.069684 0.367219 -0.687152
2009-05-20 04:31:17 51°13.979 2°55.617 -999 0.069684 0.367219 -0.687152
2009-05-20 04:31:23 51°13.986 2°55.609 -999 0.069684 0.367219 -0.687152
2009-05-20 04:31:27 51°13.991 2°55.603 -999 0.069684 0.367213 -0.687152
2009-05-20 04:31:31 51°13.996 2°55.596 -999 0.069684 0.367219 -0.687152
2009-05-20 04:31:37 51°14.004 2°55.586 -999 0.069684 0.367226 -0.652328
2009-05-20 04:31:43 51°14.013 2°55.574 -999 0.069684 0.367232 -0.687152
2009-05-20 04:31:47 51°14.019 2°55.566 -999 0.069684 0.367238 -0.687152
2009-05-20 04:31:51 51°14.025 2°55.558 -999 0.069684 0.367238 -0.687152
2009-05-20 04:31:57 51°14.035 2°55.544 -999 0.069684 0.367244 -0.687152
2009-05-20 04:32:03 51°14.045 2°55.531 -999 0.069684 0.367244 -0.687152
2009-05-20 04:32:07 51°14.052 2°55.522 -999 0.069684 0.36725 -0.687152
2009-05-20 04:32:12 51°14.06 2°55.51 -999 0.069684 0.367244 -0.687152
2009-05-20 04:32:17 51°14.069 2°55.498 -999 0.069684 0.367244 -0.687152
2009-05-20 04:32:23 51°14.08 2°55.483 -999 0.069684 0.367244 -0.687152
2009-05-20 04:32:27 51°14.088 2°55.474 -999 0.069684 0.367244 -0.687152
2009-05-20 04:32:31 51°14.096 2°55.465 -999 0.069684 0.367256 -0.687152
2009-05-20 04:32:37 51°14.107 2°55.45 -999 0.069684 0.367263 -0.687152
2009-05-20 04:32:43 51°14.119 2°55.436 -999 0.069684 0.367256 -0.687152
2009-05-20 04:32:47 51°14.127 2°55.427 -999 0.069684 0.367263 -0.687152
2009-05-20 04:32:51 51°14.135 2°55.418 -999 0.069684 0.367263 -0.687152
2009-05-20 04:32:57 51°14.146 2°55.404 -999 0.069684 0.367275 -0.687152
2009-05-20 04:33:03 51°14.158 2°55.39 -999 0.069684 0.367275 -0.687152
2009-05-20 04:33:07 51°14.166 2°55.381 -999 0.069684 0.367281 -0.687152
2009-05-20 04:33:12 51°14.176 2°55.369 -999 0.069684 0.367287 -0.652328
2009-05-20 04:33:17 51°14.185 2°55.357 -999 0.069684 0.367287 -0.687152
2009-05-20 04:33:23 51°14.197 2°55.343 -999 0.069684 0.367287 -0.687152
2009-05-20 04:33:27 51°14.204 2°55.332 -999 0.069684 0.367294 -0.687152
2009-05-20 04:33:31 51°14.212 2°55.323 -999 0.069684 0.367287 -0.687152
2009-05-20 04:33:37 51°14.223 2°55.307 -999 0.069684 0.367294 -0.687152
2009-05-20 04:33:43 51°14.234 2°55.291 -999 0.069684 0.367294 -0.687152
2009-05-20 04:33:47 51°14.241 2°55.281 -999 0.069684 0.367294 -0.687152
2009-05-20 04:33:51 51°14.248 2°55.269 -999 0.069684 0.367294 -0.687152
2009-05-20 04:33:57 51°14.259 2°55.252 -999 0.069684 0.367306 -0.687152
2009-05-20 04:34:03 51°14.269 2°55.235 -999 0.069684 0.367306 -0.687152
2009-05-20 04:34:07 51°14.277 2°55.223 -999 0.069684 0.367306 -0.687152
2009-05-20 04:34:12 51°14.285 2°55.207 -999 0.069684 0.367312 -0.687152
2009-05-20 04:34:17 51°14.294 2°55.191 -999 0.069684 0.367312 -0.687152
2009-05-20 04:34:23 51°14.305 2°55.172 -999 0.069684 0.367312 -0.687152
2009-05-20 04:34:27 51°14.312 2°55.159 -999 0.069684 0.367318 -0.687152
2009-05-20 04:34:33 51°14.322 2°55.138 -999 0.069684 0.367318 -0.687152
2009-05-20 04:34:37 51°14.329 2°55.124 -999 0.069684 0.367318 -0.687152
2009-05-20 04:34:43 51°14.339 2°55.102 -999 0.069684 0.367324 -0.687152
2009-05-20 04:34:47 51°14.345 2°55.086 -999 0.069684 0.367318 -0.687152
2009-05-20 04:34:53 51°14.354 2°55.064 -999 0.069684 0.367318 -0.687152
2009-05-20 04:34:57 51°14.36 2°55.048 -999 0.069684 0.367312 -0.687152
2009-05-20 04:35:03 51°14.37 2°55.025 -999 0.069684 0.367306 -0.687152
2009-05-20 04:35:07 51°14.377 2°55.009 -999 0.069684 0.367312 -0.687152
2009-05-20 04:35:11 51°14.383 2°54.993 -999 0.069684 0.367318 -0.687152
2009-05-20 04:35:17 51°14.392 2°54.968 -999 0.069684 0.367318 -0.687152
2009-05-20 04:35:23 51°14.403 2°54.944 -999 0.069684 0.367318 -0.687152
2009-05-20 04:35:27 51°14.41 2°54.928 -999 0.069684 0.367324 -0.652328
2009-05-20 04:35:31 51°14.418 2°54.913 -999 0.069684 0.367331 -0.687152
2009-05-20 04:35:37 51°14.429 2°54.89 -999 0.069684 0.367349 -0.687152
2009-05-20 04:35:43 51°14.44 2°54.865 -999 0.069684 0.367355 -0.652328
2009-05-20 04:35:47 51°14.448 2°54.85 -999 0.069684 0.367361 -0.687152
2009-05-20 04:35:52 51°14.457 2°54.829 -999 0.069684 0.367361 -0.687152
2009-05-20 04:35:57 51°14.467 2°54.809 -999 0.069684 0.367361 -0.687152
2009-05-20 04:36:03 51°14.479 2°54.784 -999 0.069684 0.367368 -0.687152
2009-05-20 04:36:07 51°14.487 2°54.768 -999 0.069684 0.367368 -0.687152
2009-05-20 04:36:12 51°14.496 2°54.748 -999 0.069684 0.367368 -0.687152
2009-05-20 04:36:17 51°14.506 2°54.727 -999 0.069684 0.367374 -0.687152
2009-05-20 04:36:23 51°14.518 2°54.703 -999 0.069684 0.367374 -0.687152
2009-05-20 04:36:27 51°14.526 2°54.686 -999 0.069684 0.36738 -0.687152
2009-05-20 04:36:31 51°14.533 2°54.668 -999 0.069684 0.367374 -0.687152
2009-05-20 04:36:37 51°14.544 2°54.642 -999 0.069684 0.367374 -0.687152
2009-05-20 04:36:43 51°14.554 2°54.615 -999 0.069684 0.367374 -0.687152
2009-05-20 04:36:47 51°14.561 2°54.597 -999 0.069684 0.367374 -0.687152
2009-05-20 04:36:53 51°14.571 2°54.57 -999 0.069684 0.367374 -0.687152
2009-05-20 04:36:57 51°14.578 2°54.551 -999 0.069684 0.367374 -0.652328
2009-05-20 04:37:03 51°14.588 2°54.524 -999 0.069684 0.367374 -0.687152
2009-05-20 04:37:07 51°14.595 2°54.506 -999 0.069684 0.36738 -0.687152
2009-05-20 04:37:13 51°14.605 2°54.478 -999 0.069684 0.36738 -0.652328
2009-05-20 04:37:17 51°14.612 2°54.46 -999 0.069684 0.367386 -0.687152
2009-05-20 04:37:23 51°14.622 2°54.432 -999 0.069684 0.367386 -0.687152
2009-05-20 04:37:27 51°14.629 2°54.414 -999 0.069684 0.367392 -0.687152
2009-05-20 04:37:31 51°14.636 2°54.395 -999 0.069684 0.367399 -0.687152
2009-05-20 04:37:37 51°14.646 2°54.368 -999 0.069684 0.367399 -0.687152
2009-05-20 04:37:43 51°14.656 2°54.34 -999 0.069684 0.367405 -0.687152
2009-05-20 04:37:47 51°14.663 2°54.321 -999 0.069684 0.367405 -0.687152
2009-05-20 04:37:51 51°14.669 2°54.302 -999 0.069684 0.367405 -0.687152
2009-05-20 04:37:57 51°14.679 2°54.274 -999 0.069684 0.367411 -0.652328
2009-05-20 04:38:03 51°14.688 2°54.245 -999 0.069684 0.367405 -0.687152
2009-05-20 04:38:07 51°14.694 2°54.226 -999 0.069684 0.367411 -0.687152
2009-05-20 04:38:12 51°14.701 2°54.202 -999 0.069684 0.367411 -0.687152
2009-05-20 04:38:17 51°14.709 2°54.178 -999 0.069684 0.367411 -0.687152
2009-05-20 04:38:23 51°14.717 2°54.148 -999 0.069684 0.367411 -0.687152
2009-05-20 04:38:27 51°14.723 2°54.129 -999 0.069684 0.367411 -0.687152
2009-05-20 04:38:31 51°14.729 2°54.109 -999 0.069684 0.367417 -0.652328
2009-05-20 04:38:37 51°14.737 2°54.08 -999 0.069684 0.367423 -0.687152
2009-05-20 04:38:43 51°14.745 2°54.051 -999 0.069684 0.367423 -0.687152
2009-05-20 04:38:47 51°14.751 2°54.031 -999 0.069684 0.367423 -0.687152
2009-05-20 04:38:53 51°14.759 2°54.001 -999 0.069684 0.367423 -0.687152
2009-05-20 04:38:57 51°14.765 2°53.982 -999 0.069684 0.367429 -0.687152
2009-05-20 04:39:03 51°14.773 2°53.952 -999 0.069684 0.367436 -0.687152
2009-05-20 04:39:07 51°14.779 2°53.933 -999 0.069684 0.367436 -0.687152
2009-05-20 04:39:12 51°14.786 2°53.909 -999 0.069684 0.367442 -0.687152
2009-05-20 04:39:17 51°14.792 2°53.884 -999 0.069684 0.367442 -0.687152
2009-05-20 04:39:23 51°14.8 2°53.854 -999 0.069684 0.367442 -0.687152
2009-05-20 04:39:27 51°14.805 2°53.834 -999 0.069684 0.367448 -0.687152
2009-05-20 04:39:31 51°14.809 2°53.813 -999 0.069684 0.367448 -0.687152
2009-05-20 04:39:37 51°14.816 2°53.783 -999 0.069684 0.367454 -0.687152
2009-05-20 04:39:43 51°14.823 2°53.752 -999 0.069684 0.367454 -0.687152
2009-05-20 04:39:47 51°14.827 2°53.732 -999 0.069684 0.367454 -0.687152
2009-05-20 04:39:51 51°14.832 2°53.711 -999 0.069684 0.367454 -0.687152
2009-05-20 04:39:57 51°14.838 2°53.681 -999 0.069684 0.367454 -0.687152
2009-05-20 04:40:03 51°14.844 2°53.65 -999 0.069684 0.36746 -0.687152
2009-05-20 04:40:07 51°14.849 2°53.629 -999 0.069684 0.367467 -0.687152
2009-05-20 04:40:12 51°14.854 2°53.603 -999 0.069684 0.367473 -0.687152
2009-05-20 04:40:17 51°14.859 2°53.577 -999 0.069684 0.367473 -0.687152
2009-05-20 04:40:23 51°14.865 2°53.547 -999 0.069684 0.367473 -0.687152
2009-05-20 04:40:27 51°14.87 2°53.526 -999 0.069684 0.367473 -0.687152
2009-05-20 04:40:31 51°14.874 2°53.506 -999 0.069684 0.367473 -0.687152
2009-05-20 04:40:37 51°14.881 2°53.475 -999 0.069684 0.367479 -0.687152
2009-05-20 04:40:43 51°14.887 2°53.444 -999 0.069684 0.367491 -0.687152
2009-05-20 04:40:47 51°14.891 2°53.424 -999 0.069684 0.367491 -0.687152
2009-05-20 04:40:51 51°14.896 2°53.403 -999 0.069684 0.367491 -0.687152
2009-05-20 04:40:57 51°14.902 2°53.372 -999 0.069684 0.367498 -0.687152
2009-05-20 04:41:03 51°14.908 2°53.341 -999 0.069684 0.367504 -0.687152
2009-05-20 04:41:07 51°14.913 2°53.32 -999 0.069684 0.367504 -0.687152
2009-05-20 04:41:13 51°14.919 2°53.289 -999 0.069684 0.36751 -0.687152
2009-05-20 04:41:17 51°14.923 2°53.269 -999 0.069684 0.367516 -0.687152
2009-05-20 04:41:23 51°14.929 2°53.238 -999 0.069684 0.367516 -0.687152
2009-05-20 04:41:27 51°14.933 2°53.217 -999 0.069684 0.367516 -0.687152
2009-05-20 04:41:33 51°14.939 2°53.186 -999 0.069684 0.367516 -0.687152
2009-05-20 04:41:37 51°14.943 2°53.165 -999 0.069684 0.367528 -0.687152
2009-05-20 04:41:43 51°14.949 2°53.134 -999 0.069684 0.367528 -0.687152
2009-05-20 04:41:47 51°14.952 2°53.114 -999 0.069684 0.367535 -0.652328
2009-05-20 04:41:53 51°14.958 2°53.083 -999 0.069684 0.367535 -0.652328
2009-05-20 04:41:57 51°14.962 2°53.062 -999 0.069684 0.367535 -0.687152
2009-05-20 04:42:03 51°14.968 2°53.031 -999 0.069684 0.367547 -0.687152
2009-05-20 04:42:07 51°14.972 2°53.011 -999 0.069684 0.367547 -0.687152
2009-05-20 04:42:12 51°14.977 2°52.986 -999 0.069684 0.367559 -0.687152
2009-05-20 04:42:17 51°14.982 2°52.96 -999 0.069684 0.367559 -0.687152
2009-05-20 04:42:23 51°14.988 2°52.929 -999 0.069684 0.367559 -0.687152
2009-05-20 04:42:27 51°14.992 2°52.908 -999 0.069684 0.367566 -0.652328
2009-05-20 04:42:31 51°14.997 2°52.888 -999 0.069684 0.367566 -0.687152
2009-05-20 04:42:37 51°15.003 2°52.857 -999 0.069581 0.367012 -0.687152
2009-05-20 04:42:43 51°15.009 2°52.827 -999 0.069684 0.367578 -0.687152
2009-05-20 04:42:47 51°15.013 2°52.806 -999 0.069684 0.367584 -0.652328
2009-05-20 04:42:51 51°15.017 2°52.786 -999 0.069684 0.367584 -0.652328
2009-05-20 04:42:57 51°15.023 2°52.755 -999 0.069684 0.367584 -0.652328
2009-05-20 04:43:03 51°15.029 2°52.724 -999 0.069684 0.36759 -0.687152
2009-05-20 04:43:07 51°15.033 2°52.703 -999 0.069684 0.36759 -0.687152
2009-05-20 04:43:12 51°15.039 2°52.678 -999 0.069684 0.367597 -0.687152
2009-05-20 04:43:17 51°15.044 2°52.653 -999 0.069581 0.367043 -0.652328
2009-05-20 04:43:23 51°15.05 2°52.622 -999 0.069581 0.367043 -0.652328
2009-05-20 04:43:27 51°15.054 2°52.602 -999 0.069581 0.367049 -0.687152
2009-05-20 04:43:31 51°15.058 2°52.581 -999 0.069581 0.367055 -0.687152
2009-05-20 04:43:37 51°15.064 2°52.551 -999 0.069581 0.367055 -0.687152
2009-05-20 04:43:43 51°15.07 2°52.52 -999 0.069581 0.367068 -0.687152
2009-05-20 04:43:47 51°15.074 2°52.499 -999 0.069581 0.367068 -0.687152
2009-05-20 04:43:53 51°15.081 2°52.469 -999 0.069581 0.367068 -0.687152
2009-05-20 04:43:57 51°15.085 2°52.448 -999 0.069581 0.367074 -0.652328
2009-05-20 04:44:03 51°15.091 2°52.418 -999 0.069581 0.36708 -0.687152
2009-05-20 04:44:07 51°15.095 2°52.397 -999 0.069581 0.36708 -0.687152
2009-05-20 04:44:11 51°15.099 2°52.377 -999 0.069581 0.367092 -0.687152
2009-05-20 04:44:17 51°15.106 2°52.346 -999 0.069581 0.367086 -0.687152
2009-05-20 04:44:23 51°15.113 2°52.316 -999 0.069581 0.367086 -0.687152
2009-05-20 04:44:27 51°15.117 2°52.295 -999 0.069581 0.367098 -0.687152
2009-05-20 04:44:31 51°15.122 2°52.275 -999 0.069581 0.367098 -0.687152
2009-05-20 04:44:37 51°15.13 2°52.246 -999 0.069581 0.367105 -0.687152
2009-05-20 04:44:43 51°15.138 2°52.216 -999 0.069581 0.367111 -0.687152
2009-05-20 04:44:47 51°15.143 2°52.197 -999 0.069581 0.367123 -0.652328
2009-05-20 04:44:51 51°15.149 2°52.177 -999 0.069581 0.367123 -0.652328
2009-05-20 04:44:57 51°15.157 2°52.148 -999 0.069581 0.367129 -0.687152
2009-05-20 04:45:03 51°15.166 2°52.119 -999 0.069581 0.367129 -0.687152
2009-05-20 04:45:07 51°15.171 2°52.1 -999 0.069581 0.367142 -0.687152
2009-05-20 04:45:12 51°15.179 2°52.076 -999 0.069581 0.367142 -0.687152
2009-05-20 04:45:17 51°15.186 2°52.052 -999 0.069581 0.367148 -0.687152
2009-05-20 04:45:23 51°15.194 2°52.022 -999 0.069581 0.367148 -0.687152
2009-05-20 04:45:27 51°15.2 2°52.003 -999 0.069581 0.367154 -0.687152
2009-05-20 04:45:31 51°15.206 2°51.984 -999 0.069581 0.367154 -0.687152
2009-05-20 04:45:37 51°15.215 2°51.955 -999 0.069581 0.367166 -0.687152
2009-05-20 04:45:43 51°15.223 2°51.926 -999 0.069581 0.367166 -0.687152
2009-05-20 04:45:47 51°15.229 2°51.906 -999 0.069581 0.367179 -0.687152
2009-05-20 04:45:53 51°15.237 2°51.876 -999 0.069581 0.367179 -0.687152
2009-05-20 04:45:57 51°15.243 2°51.857 -999 0.069581 0.367179 -0.687152
2009-05-20 04:46:03 51°15.252 2°51.828 -999 0.069581 0.367185 -0.687152
2009-05-20 04:46:07 51°15.257 2°51.808 -999 0.069581 0.367191 -0.687152
2009-05-20 04:46:13 51°15.266 2°51.779 -999 0.069581 0.367197 -0.687152
2009-05-20 04:46:17 51°15.271 2°51.759 -999 0.069581 0.367204 -0.687152
2009-05-20 04:46:23 51°15.28 2°51.73 -999 0.069581 0.367204 -0.687152
2009-05-20 04:46:27 51°15.284 2°51.709 -999 0.069581 0.36721 -0.687152
2009-05-20 04:46:31 51°15.289 2°51.689 -999 0.069581 0.367228 -0.687152
2009-05-20 04:46:37 51°15.294 2°51.657 -999 0.069581 0.367228 -0.687152
2009-05-20 04:46:43 51°15.299 2°51.626 -999 0.069581 0.367235 -0.687152
2009-05-20 04:46:47 51°15.302 2°51.605 -999 0.069581 0.367235 -0.687152
2009-05-20 04:46:51 51°15.304 2°51.583 -999 0.069581 0.367235 -0.687152
2009-05-20 04:46:57 51°15.308 2°51.551 -999 0.069581 0.367235 -0.687152
2009-05-20 04:47:03 51°15.311 2°51.519 -999 0.069581 0.367241 -0.687152
2009-05-20 04:47:07 51°15.312 2°51.497 -999 0.069581 0.367247 -0.687152
2009-05-20 04:47:12 51°15.314 2°51.47 -999 0.069581 0.367253 -0.687152
2009-05-20 04:47:17 51°15.315 2°51.443 -999 0.069581 0.367259 -0.687152
2009-05-20 04:47:23 51°15.316 2°51.41 -999 0.069581 0.367259 -0.687152
2009-05-20 04:47:27 51°15.317 2°51.388 -999 0.069581 0.367265 -0.687152
2009-05-20 04:47:32 51°15.317 2°51.36 -999 0.069581 0.367265 -0.687152
2009-05-20 04:47:37 51°15.317 2°51.333 -999 0.069581 0.367272 -0.652328
2009-05-20 04:47:43 51°15.317 2°51.3 -999 0.069581 0.367284 -0.652328
2009-05-20 04:47:47 51°15.317 2°51.278 -999 0.069581 0.367284 -0.652328
2009-05-20 04:47:53 51°15.317 2°51.245 -999 0.069581 0.367284 -0.652328
2009-05-20 04:47:57 51°15.316 2°51.223 -999 0.069581 0.367296 -0.687152
2009-05-20 04:48:03 51°15.316 2°51.19 -999 0.069581 0.367296 -0.687152
2009-05-20 04:48:07 51°15.315 2°51.168 -999 0.069581 0.367303 -0.687152
2009-05-20 04:48:13 51°15.314 2°51.135 -999 0.069581 0.367303 -0.687152
2009-05-20 04:48:17 51°15.314 2°51.113 -999 0.069581 0.367315 -0.687152
2009-05-20 04:48:23 51°15.313 2°51.079 -999 0.069581 0.367315 -0.687152
2009-05-20 04:48:27 51°15.312 2°51.057 -999 0.069581 0.367315 -0.687152
2009-05-20 04:48:32 51°15.312 2°51.03 -999 0.069581 0.367321 -0.687152
2009-05-20 04:48:37 51°15.311 2°51.002 -999 0.069581 0.367327 -0.687152
2009-05-20 04:48:43 51°15.31 2°50.969 -999 0.069581 0.367334 -0.652328
2009-05-20 04:48:47 51°15.309 2°50.947 -999 0.069581 0.36734 -0.687152
2009-05-20 04:48:51 51°15.309 2°50.925 -999 0.069581 0.36734 -0.687152
2009-05-20 04:48:57 51°15.309 2°50.892 -999 0.069581 0.367346 -0.687152
2009-05-20 04:49:03 51°15.309 2°50.859 -999 0.069581 0.367352 -0.687152
2009-05-20 04:49:07 51°15.308 2°50.837 -999 0.069581 0.367358 -0.687152
2009-05-20 04:49:11 51°15.308 2°50.815 -999 0.069581 0.367371 -0.652328
2009-05-20 04:49:17 51°15.308 2°50.781 -999 0.069581 0.367377 -0.687152
2009-05-20 04:49:23 51°15.309 2°50.748 -999 0.069581 0.367377 -0.687152
2009-05-20 04:49:27 51°15.309 2°50.727 -999 0.069581 0.367383 -0.687152
2009-05-20 04:49:32 51°15.309 2°50.699 -999 0.069581 0.367389 -0.687152
2009-05-20 04:49:37 51°15.309 2°50.671 -999 0.069581 0.367395 -0.687152
2009-05-20 04:49:43 51°15.309 2°50.638 -999 0.069581 0.367402 -0.687152
2009-05-20 04:49:47 51°15.309 2°50.616 -999 0.069581 0.367402 -0.687152
2009-05-20 04:49:51 51°15.309 2°50.594 -999 0.069581 0.367402 -0.687152
2009-05-20 04:49:57 51°15.309 2°50.561 -999 0.069581 0.367408 -0.687152
2009-05-20 04:50:03 51°15.31 2°50.527 -999 0.069581 0.367414 -0.687152
2009-05-20 04:50:07 51°15.31 2°50.505 -999 0.069581 0.36742 -0.687152
2009-05-20 04:50:13 51°15.31 2°50.472 -999 0.069581 0.367426 -0.687152
2009-05-20 04:50:17 51°15.31 2°50.45 -999 0.069581 0.367433 -0.687152
2009-05-20 04:50:23 51°15.31 2°50.417 -999 0.069581 0.367433 -0.687152
2009-05-20 04:50:27 51°15.311 2°50.395 -999 0.069581 0.367439 -0.687152
2009-05-20 04:50:33 51°15.311 2°50.361 -999 0.069581 0.367445 -0.687152
2009-05-20 04:50:37 51°15.311 2°50.339 -999 0.069581 0.367451 -0.687152
2009-05-20 04:50:43 51°15.311 2°50.306 -999 0.069581 0.367457 -0.687152
2009-05-20 04:50:47 51°15.311 2°50.284 -999 0.069581 0.367464 -0.687152
2009-05-20 04:50:53 51°15.311 2°50.25 -999 0.069581 0.367464 -0.687152
2009-05-20 04:50:57 51°15.311 2°50.228 -999 0.069581 0.36747 -0.687152
2009-05-20 04:51:03 51°15.311 2°50.195 -999 0.069581 0.367476 -0.687152
2009-05-20 04:51:07 51°15.311 2°50.173 -999 0.069581 0.367482 -0.687152
2009-05-20 04:51:11 51°15.311 2°50.15 -999 0.069581 0.367488 -0.687152
2009-05-20 04:51:17 51°15.311 2°50.118 -999 0.069581 0.367488 -0.687152
2009-05-20 04:51:23 51°15.311 2°50.084 -999 0.069581 0.367488 -0.687152
2009-05-20 04:51:27 51°15.311 2°50.062 -999 0.069581 0.367495 -0.652328
2009-05-20 04:51:31 51°15.311 2°50.04 -999 0.069581 0.367501 -0.687152
2009-05-20 04:51:37 51°15.311 2°50.007 -999 0.069581 0.367507 -0.687152
2009-05-20 04:51:43 51°15.311 2°49.974 -999 0.069581 0.367513 -0.687152
2009-05-20 04:51:47 51°15.311 2°49.952 -999 0.069581 0.367519 -0.687152
2009-05-20 04:51:52 51°15.311 2°49.924 -999 0.069581 0.367519 -0.687152
2009-05-20 04:51:57 51°15.311 2°49.897 -999 0.069478 0.366965 -0.687152
2009-05-20 04:52:03 51°15.311 2°49.863 -999 0.069581 0.367532 -0.687152
2009-05-20 04:52:07 51°15.312 2°49.842 -999 0.069581 0.367538 -0.687152
2009-05-20 04:52:12 51°15.311 2°49.814 -999 0.069478 0.366984 -0.687152
2009-05-20 04:52:17 51°15.311 2°49.787 -999 0.069478 0.36699 -0.687152
2009-05-20 04:52:23 51°15.31 2°49.754 -999 0.069478 0.36699 -0.687152
2009-05-20 04:52:27 51°15.31 2°49.731 -999 0.069478 0.366996 -0.687152
2009-05-20 04:52:32 51°15.31 2°49.704 -999 0.069478 0.367002 -0.687152
2009-05-20 04:52:37 51°15.309 2°49.677 -999 0.069478 0.367002 -0.687152
2009-05-20 04:52:43 51°15.309 2°49.644 -999 0.069478 0.367008 -0.687152
2009-05-20 04:52:47 51°15.308 2°49.622 -999 0.069478 0.367015 -0.687152
2009-05-20 04:52:53 51°15.308 2°49.589 -999 0.069478 0.367015 -0.687152
2009-05-20 04:52:57 51°15.307 2°49.567 -999 0.069478 0.367021 -0.687152
2009-05-20 04:53:03 51°15.307 2°49.534 -999 0.069478 0.367027 -0.687152
2009-05-20 04:53:07 51°15.307 2°49.512 -999 0.069478 0.367033 -0.687152
2009-05-20 04:53:13 51°15.306 2°49.48 -999 0.069478 0.367039 -0.687152
2009-05-20 04:53:17 51°15.306 2°49.458 -999 0.069478 0.367045 -0.687152
2009-05-20 04:53:23 51°15.306 2°49.425 -999 0.069478 0.367045 -0.687152
2009-05-20 04:53:27 51°15.306 2°49.403 -999 0.069478 0.367058 -0.687152
2009-05-20 04:53:32 51°15.306 2°49.375 -999 0.069478 0.367058 -0.687152
2009-05-20 04:53:36 51°15.305 2°49.353 -999 0.069478 0.367064 -0.687152
2009-05-20 04:53:43 51°15.305 2°49.315 -999 0.069478 0.36707 -0.687152
2009-05-20 04:53:47 51°15.305 2°49.294 -999 0.069478 0.367076 -0.687152
2009-05-20 04:53:52 51°15.305 2°49.267 -999 0.069478 0.367076 -0.687152
2009-05-20 04:53:57 51°15.305 2°49.239 -999 0.069478 0.367083 -0.687152
2009-05-20 04:54:03 51°15.305 2°49.207 -999 0.069478 0.367089 -0.687152
2009-05-20 04:54:07 51°15.305 2°49.185 -999 0.069478 0.367095 -0.687152
2009-05-20 04:54:11 51°15.305 2°49.164 -999 0.069478 0.367095 -0.687152
2009-05-20 04:54:17 51°15.304 2°49.131 -999 0.069478 0.367107 -0.687152
2009-05-20 04:54:23 51°15.304 2°49.099 -999 0.069478 0.367107 -0.687152
2009-05-20 04:54:27 51°15.304 2°49.078 -999 0.069478 0.367107 -0.687152
2009-05-20 04:54:32 51°15.304 2°49.051 -999 0.069478 0.367114 -0.687152
2009-05-20 04:54:37 51°15.304 2°49.024 -999 0.069478 0.36712 -0.687152
2009-05-20 04:54:43 51°15.304 2°48.992 -999 0.069478 0.367132 -0.687152
2009-05-20 04:54:47 51°15.303 2°48.971 -999 0.069478 0.367132 -0.687152
2009-05-20 04:54:52 51°15.303 2°48.944 -999 0.069478 0.367132 -0.687152
2009-05-20 04:54:57 51°15.302 2°48.917 -999 0.069478 0.367138 -0.687152
2009-05-20 04:55:03 51°15.301 2°48.885 -999 0.069478 0.367138 -0.652328
2009-05-20 04:55:07 51°15.301 2°48.863 -999 0.069478 0.367145 -0.687152
2009-05-20 04:55:13 51°15.3 2°48.831 -999 0.069478 0.367151 -0.687152
2009-05-20 04:55:18 51°15.3 2°48.804 -999 0.069478 0.367157 -0.687152
2009-05-20 04:55:23 51°15.299 2°48.777 -999 0.069478 0.367157 -0.687152
2009-05-20 04:55:27 51°15.299 2°48.755 -999 0.069478 0.367163 -0.687152
2009-05-20 04:55:31 51°15.298 2°48.734 -999 0.069478 0.367169 -0.687152
2009-05-20 04:55:38 51°15.297 2°48.696 -999 0.069478 0.367176 -0.687152
2009-05-20 04:55:43 51°15.297 2°48.669 -999 0.069478 0.367182 -0.687152
2009-05-20 04:55:47 51°15.296 2°48.648 -999 0.069478 0.367188 -0.687152
2009-05-20 04:55:52 51°15.295 2°48.621 -999 0.069478 0.367188 -0.687152
2009-05-20 04:55:57 51°15.295 2°48.594 -999 0.069478 0.367188 -0.687152
2009-05-20 04:56:03 51°15.294 2°48.562 -999 0.069478 0.367194 -0.687152
2009-05-20 04:56:08 51°15.293 2°48.535 -999 0.069478 0.3672 -0.687152
2009-05-20 04:56:12 51°15.292 2°48.514 -999 0.069581 0.367768 -0.687152
2009-05-20 04:56:18 51°15.292 2°48.482 -999 0.069478 0.367213 -0.687152
2009-05-20 04:56:23 51°15.291 2°48.455 -999 0.069478 0.367213 -0.687152
2009-05-20 04:56:27 51°15.29 2°48.433 -999 0.069478 0.367219 -0.687152
2009-05-20 04:56:32 51°15.29 2°48.407 -999 0.069478 0.367225 -0.687152
2009-05-20 04:56:38 51°15.288 2°48.375 -999 0.069478 0.367231 -0.687152
2009-05-20 04:56:43 51°15.288 2°48.348 -999 0.069478 0.367238 -0.687152
2009-05-20 04:56:47 51°15.287 2°48.327 -999 0.069478 0.367244 -0.687152
2009-05-20 04:56:52 51°15.286 2°48.3 -999 0.069478 0.367244 -0.687152
2009-05-20 04:56:57 51°15.285 2°48.274 -999 0.069478 0.36725 -0.687152
2009-05-20 04:57:03 51°15.284 2°48.242 -999 0.069478 0.367256 -0.652328
2009-05-20 04:57:07 51°15.283 2°48.22 -999 0.069478 0.367262 -0.687152
2009-05-20 04:57:13 51°15.282 2°48.189 -999 0.069478 0.367275 -0.687152
2009-05-20 04:57:17 51°15.28 2°48.168 -999 0.069478 0.367275 -0.687152
2009-05-20 04:57:23 51°15.279 2°48.136 -999 0.069478 0.367275 -0.687152
2009-05-20 04:57:27 51°15.278 2°48.115 -999 0.069478 0.367281 -0.687152
2009-05-20 04:57:33 51°15.276 2°48.083 -999 0.069478 0.367281 -0.687152
2009-05-20 04:57:37 51°15.276 2°48.062 -999 0.069478 0.367287 -0.687152
2009-05-20 04:57:43 51°15.274 2°48.031 -999 0.069478 0.367293 -0.687152
2009-05-20 04:57:47 51°15.273 2°48.01 -999 0.069478 0.3673 -0.687152
2009-05-20 04:57:52 51°15.273 2°47.983 -999 0.069478 0.3673 -0.687152
2009-05-20 04:57:57 51°15.272 2°47.957 -999 0.069478 0.367306 -0.687152
2009-05-20 04:58:03 51°15.271 2°47.925 -999 0.069478 0.367312 -0.687152
2009-05-20 04:58:08 51°15.27 2°47.899 -999 0.069478 0.367318 -0.687152
2009-05-20 04:58:12 51°15.269 2°47.878 -999 0.069478 0.367324 -0.687152
2009-05-20 04:58:18 51°15.268 2°47.846 -999 0.069478 0.367331 -0.687152
2009-05-20 04:58:23 51°15.267 2°47.82 -999 0.069478 0.367331 -0.687152
2009-05-20 04:58:27 51°15.267 2°47.799 -999 0.069478 0.367337 -0.687152
2009-05-20 04:58:32 51°15.266 2°47.772 -999 0.069478 0.367343 -0.687152
2009-05-20 04:58:38 51°15.264 2°47.74 -999 0.069478 0.367349 -0.687152
2009-05-20 04:58:43 51°15.264 2°47.714 -999 0.069478 0.367355 -0.687152
2009-05-20 04:58:47 51°15.263 2°47.693 -999 0.069478 0.367355 -0.687152
2009-05-20 04:58:52 51°15.262 2°47.667 -999 0.069478 0.367355 -0.687152
2009-05-20 04:58:57 51°15.26 2°47.64 -999 0.069478 0.367368 -0.687152
2009-05-20 04:59:03 51°15.258 2°47.609 -999 0.069478 0.367374 -0.687152
2009-05-20 04:59:08 51°15.256 2°47.582 -999 0.069478 0.367374 -0.687152
2009-05-20 04:59:13 51°15.255 2°47.556 -999 0.069478 0.36738 -0.687152
2009-05-20 04:59:17 51°15.253 2°47.535 -999 0.069478 0.367386 -0.687152
2009-05-20 04:59:23 51°15.251 2°47.503 -999 0.069478 0.367386 -0.687152
2009-05-20 04:59:27 51°15.249 2°47.482 -999 0.069478 0.367393 -0.687152
2009-05-20 04:59:33 51°15.247 2°47.45 -999 0.069478 0.367393 -0.687152
2009-05-20 04:59:37 51°15.246 2°47.429 -999 0.069478 0.367399 -0.687152
2009-05-20 04:59:43 51°15.243 2°47.398 -999 0.069478 0.367405 -0.687152
2009-05-20 04:59:47 51°15.242 2°47.377 -999 0.069478 0.367411 -0.687152
2009-05-20 04:59:53 51°15.24 2°47.345 -999 0.069478 0.367411 -0.687152
2009-05-20 04:59:57 51°15.238 2°47.324 -999 0.069478 0.367418 -0.687152
2009-05-20 05:00:03 51°15.236 2°47.292 -999 0.069478 0.367424 -0.687152
2009-05-20 05:00:07 51°15.234 2°47.271 -999 0.069478 0.36743 -0.687152
2009-05-20 05:00:12 51°15.232 2°47.244 -999 0.069478 0.367436 -0.687152
2009-05-20 05:00:18 51°15.229 2°47.213 -999 0.069478 0.367442 -0.687152
2009-05-20 05:00:23 51°15.227 2°47.187 -999 0.069478 0.367442 -0.687152
2009-05-20 05:00:27 51°15.225 2°47.166 -999 0.069478 0.367449 -0.687152
2009-05-20 05:00:32 51°15.223 2°47.139 -999 0.069478 0.367449 -0.687152
2009-05-20 05:00:38 51°15.22 2°47.108 -999 0.069375 0.366893 -0.687152
2009-05-20 05:00:43 51°15.217 2°47.081 -999 0.069375 0.366893 -0.687152
2009-05-20 05:00:47 51°15.215 2°47.06 -999 0.069375 0.3669 -0.687152
2009-05-20 05:00:52 51°15.213 2°47.034 -999 0.069375 0.3669 -0.687152
2009-05-20 05:00:57 51°15.211 2°47.008 -999 0.069375 0.366906 -0.687152
2009-05-20 05:01:03 51°15.208 2°46.976 -999 0.069375 0.366912 -0.687152
2009-05-20 05:01:07 51°15.207 2°46.955 -999 0.069375 0.366924 -0.687152
2009-05-20 05:01:13 51°15.204 2°46.923 -999 0.069375 0.366924 -0.687152
2009-05-20 05:01:17 51°15.202 2°46.902 -999 0.069375 0.366931 -0.687152
2009-05-20 05:01:23 51°15.199 2°46.87 -999 0.069375 0.366931 -0.687152
2009-05-20 05:01:27 51°15.198 2°46.849 -999 0.069375 0.366937 -0.687152
2009-05-20 05:01:33 51°15.195 2°46.817 -999 0.069375 0.366943 -0.687152
2009-05-20 05:01:37 51°15.193 2°46.796 -999 0.069375 0.366949 -0.687152
2009-05-20 05:01:43 51°15.19 2°46.765 -999 0.069375 0.366949 -0.687152
2009-05-20 05:01:47 51°15.189 2°46.744 -999 0.069375 0.366955 -0.687152
2009-05-20 05:01:53 51°15.186 2°46.712 -999 0.069375 0.366955 -0.687152
2009-05-20 05:01:57 51°15.184 2°46.691 -999 0.069375 0.366955 -0.687152
2009-05-20 05:02:03 51°15.182 2°46.659 -999 0.069375 0.366962 -0.687152
2009-05-20 05:02:07 51°15.18 2°46.638 -999 0.069375 0.366968 -0.687152
2009-05-20 05:02:12 51°15.178 2°46.611 -999 0.069375 0.366974 -0.687152
2009-05-20 05:02:18 51°15.176 2°46.579 -999 0.069375 0.36698 -0.687152
2009-05-20 05:02:23 51°15.174 2°46.553 -999 0.069375 0.36698 -0.687152
2009-05-20 05:02:27 51°15.172 2°46.532 -999 0.069375 0.366986 -0.687152
2009-05-20 05:02:32 51°15.17 2°46.505 -999 0.069375 0.366986 -0.687152
2009-05-20 05:02:38 51°15.168 2°46.473 -999 0.069375 0.366986 -0.687152
2009-05-20 05:02:43 51°15.166 2°46.447 -999 0.069375 0.366999 -0.687152
2009-05-20 05:02:47 51°15.165 2°46.425 -999 0.069478 0.36756 -0.687152
2009-05-20 05:02:52 51°15.163 2°46.398 -999 0.069478 0.36756 -0.687152
2009-05-20 05:02:58 51°15.162 2°46.367 -999 0.069375 0.367005 -0.687152
2009-05-20 05:03:03 51°15.161 2°46.34 -999 0.069375 0.367011 -0.687152
2009-05-20 05:03:07 51°15.159 2°46.318 -999 0.069375 0.367017 -0.687152
2009-05-20 05:03:12 51°15.158 2°46.292 -999 0.069375 0.367024 -0.687152
2009-05-20 05:03:17 51°15.156 2°46.265 -999 0.069375 0.367024 -0.687152
2009-05-20 05:03:23 51°15.155 2°46.232 -999 0.069375 0.367024 -0.687152
2009-05-20 05:03:27 51°15.153 2°46.211 -999 0.069375 0.36703 -0.687152
2009-05-20 05:03:32 51°15.152 2°46.185 -999 0.069375 0.367036 -0.687152
2009-05-20 05:03:37 51°15.151 2°46.157 -999 0.069375 0.367042 -0.687152
2009-05-20 05:03:43 51°15.149 2°46.125 -999 0.069375 0.367036 -0.687152
2009-05-20 05:03:47 51°15.147 2°46.104 -999 0.069375 0.367048 -0.687152
2009-05-20 05:03:52 51°15.146 2°46.077 -999 0.069375 0.367048 -0.687152
2009-05-20 05:03:57 51°15.144 2°46.05 -999 0.069375 0.367055 -0.687152
2009-05-20 05:04:03 51°15.142 2°46.018 -999 0.069375 0.367061 -0.687152
2009-05-20 05:04:07 51°15.141 2°45.996 -999 0.069375 0.367061 -0.687152
2009-05-20 05:04:12 51°15.139 2°45.969 -999 0.069375 0.367067 -0.652328
2009-05-20 05:04:18 51°15.137 2°45.936 -999 0.069375 0.367073 -0.687152
2009-05-20 05:04:23 51°15.135 2°45.909 -999 0.069375 0.367073 -0.687152
2009-05-20 05:04:27 51°15.134 2°45.888 -999 0.069375 0.367073 -0.687152
2009-05-20 05:04:33 51°15.132 2°45.855 -999 0.069375 0.367086 -0.687152
2009-05-20 05:04:39 51°15.13 2°45.823 -999 0.069375 0.367086 -0.687152
2009-05-20 05:04:44 51°15.129 2°45.796 -999 0.069375 0.367092 -0.687152
2009-05-20 05:04:50 51°15.127 2°45.764 -999 0.069375 0.367098 -0.687152
2009-05-20 05:04:55 51°15.125 2°45.737 -999 0.069375 0.367098 -0.687152
2009-05-20 05:05:01 51°15.123 2°45.704 -999 0.069375 0.367098 -0.687152
2009-05-20 05:05:06 51°15.121 2°45.677 -999 0.069375 0.367111 -0.687152
2009-05-20 05:05:11 51°15.12 2°45.65 -999 0.069375 0.367111 -0.687152
2009-05-20 05:05:16 51°15.118 2°45.623 -999 0.069375 0.367117 -0.687152
2009-05-20 05:05:21 51°15.117 2°45.596 -999 0.069375 0.367123 -0.687152
2009-05-20 05:05:27 51°15.114 2°45.563 -999 0.069375 0.367123 -0.687152
2009-05-20 05:05:31 51°15.113 2°45.542 -999 0.069375 0.367129 -0.687152
2009-05-20 05:05:36 51°15.111 2°45.515 -999 0.069375 0.367129 -0.687152
2009-05-20 05:05:41 51°15.11 2°45.488 -999 0.069375 0.367135 -0.687152
2009-05-20 05:05:47 51°15.108 2°45.455 -999 0.069375 0.367142 -0.687152
2009-05-20 05:05:51 51°15.106 2°45.434 -999 0.069375 0.367148 -0.687152
2009-05-20 05:05:56 51°15.105 2°45.407 -999 0.069375 0.367148 -0.687152
2009-05-20 05:06:01 51°15.103 2°45.38 -999 0.069375 0.367154 -0.687152
2009-05-20 05:06:06 51°15.101 2°45.353 -999 0.069375 0.367154 -0.687152
2009-05-20 05:06:11 51°15.1 2°45.326 -999 0.069375 0.36716 -0.687152
2009-05-20 05:06:16 51°15.098 2°45.299 -999 0.069375 0.367166 -0.687152
2009-05-20 05:06:21 51°15.096 2°45.272 -999 0.069375 0.367173 -0.687152
2009-05-20 05:06:26 51°15.095 2°45.245 -999 0.069375 0.367173 -0.687152
2009-05-20 05:06:31 51°15.093 2°45.218 -999 0.069375 0.367179 -0.687152
2009-05-20 05:06:36 51°15.091 2°45.191 -999 0.069375 0.367185 -0.687152
2009-05-20 05:06:41 51°15.089 2°45.164 -999 0.069375 0.367191 -0.687152
2009-05-20 05:06:46 51°15.087 2°45.137 -999 0.069375 0.367191 -0.687152
2009-05-20 05:06:51 51°15.085 2°45.11 -999 0.069375 0.367191 -0.687152
2009-05-20 05:06:56 51°15.083 2°45.083 -999 0.069375 0.367191 -0.687152
2009-05-20 05:07:01 51°15.081 2°45.055 -999 0.069375 0.367197 -0.687152
2009-05-20 05:07:06 51°15.08 2°45.028 -999 0.069375 0.367204 -0.687152
2009-05-20 05:07:11 51°15.078 2°45.001 -999 0.069375 0.36721 -0.687152
2009-05-20 05:07:16 51°15.076 2°44.974 -999 0.069375 0.367216 -0.687152
2009-05-20 05:07:21 51°15.073 2°44.947 -999 0.069375 0.367222 -0.687152
2009-05-20 05:07:27 51°15.071 2°44.915 -999 0.069375 0.367222 -0.687152
2009-05-20 05:07:31 51°15.069 2°44.893 -999 0.069375 0.367222 -0.687152
2009-05-20 05:07:36 51°15.066 2°44.866 -999 0.069375 0.367229 -0.687152
2009-05-20 05:07:41 51°15.064 2°44.839 -999 0.069375 0.367235 -0.687152
2009-05-20 05:07:46 51°15.062 2°44.812 -999 0.069375 0.367235 -0.687152
2009-05-20 05:07:51 51°15.06 2°44.785 -999 0.069375 0.367235 -0.687152
2009-05-20 05:07:56 51°15.058 2°44.757 -999 0.069375 0.367235 -0.687152
2009-05-20 05:08:01 51°15.056 2°44.73 -999 0.069375 0.367241 -0.687152
2009-05-20 05:08:06 51°15.055 2°44.703 -999 0.069375 0.367247 -0.687152
2009-05-20 05:08:11 51°15.053 2°44.676 -999 0.069375 0.367253 -0.687152
2009-05-20 05:08:16 51°15.051 2°44.648 -999 0.069375 0.36726 -0.687152
2009-05-20 05:08:21 51°15.049 2°44.621 -999 0.069375 0.367266 -0.687152
2009-05-20 05:08:26 51°15.047 2°44.594 -999 0.069375 0.367266 -0.687152
2009-05-20 05:08:31 51°15.046 2°44.567 -999 0.069375 0.367272 -0.687152
2009-05-20 05:08:36 51°15.044 2°44.539 -999 0.069375 0.367272 -0.687152
2009-05-20 05:08:41 51°15.043 2°44.512 -999 0.069375 0.367278 -0.687152
2009-05-20 05:08:46 51°15.041 2°44.485 -999 0.069375 0.367278 -0.687152
2009-05-20 05:08:51 51°15.04 2°44.457 -999 0.069375 0.367284 -0.687152
2009-05-20 05:08:56 51°15.038 2°44.43 -999 0.069375 0.367284 -0.687152
2009-05-20 05:09:01 51°15.037 2°44.402 -999 0.069375 0.367291 -0.687152
2009-05-20 05:09:06 51°15.036 2°44.375 -999 0.069375 0.367297 -0.687152
2009-05-20 05:09:11 51°15.034 2°44.347 -999 0.069375 0.367297 -0.687152
2009-05-20 05:09:16 51°15.033 2°44.32 -999 0.069375 0.367303 -0.687152
2009-05-20 05:09:21 51°15.031 2°44.293 -999 0.069375 0.367309 -0.687152
2009-05-20 05:09:26 51°15.029 2°44.265 -999 0.069375 0.367309 -0.687152
2009-05-20 05:09:31 51°15.028 2°44.238 -999 0.069375 0.367309 -0.687152
2009-05-20 05:09:36 51°15.026 2°44.211 -999 0.069375 0.367316 -0.687152
2009-05-20 05:09:41 51°15.024 2°44.183 -999 0.069375 0.367322 -0.687152
2009-05-20 05:09:47 51°15.022 2°44.151 -999 0.069375 0.367328 -0.687152
2009-05-20 05:09:51 51°15.021 2°44.129 -999 0.069375 0.367328 -0.687152
2009-05-20 05:09:56 51°15.019 2°44.102 -999 0.069375 0.367328 -0.687152
2009-05-20 05:10:01 51°15.017 2°44.075 -999 0.069375 0.367334 -0.687152
2009-05-20 05:10:06 51°15.015 2°44.048 -999 0.069375 0.36734 -0.687152
2009-05-20 05:10:11 51°15.013 2°44.02 -999 0.069375 0.367353 -0.687152
2009-05-20 05:10:16 51°15.011 2°43.994 -999 0.069375 0.367353 -0.687152
2009-05-20 05:10:21 51°15.009 2°43.966 -999 0.069375 0.367353 -0.687152
2009-05-20 05:10:26 51°15.007 2°43.939 -999 0.069375 0.367353 -0.687152
2009-05-20 05:10:31 51°15.005 2°43.912 -999 0.069375 0.367359 -0.687152
2009-05-20 05:10:36 51°15.003 2°43.885 -999 0.069375 0.367365 -0.687152
2009-05-20 05:10:41 51°15 2°43.858 -999 0.069375 0.367365 -0.687152
2009-05-20 05:10:46 51°14.998 2°43.831 -999 0.069375 0.367365 -0.687152
2009-05-20 05:10:51 51°14.996 2°43.805 -999 0.069375 0.367372 -0.687152
2009-05-20 05:10:56 51°14.994 2°43.778 -999 0.069375 0.367372 -0.687152
2009-05-20 05:11:01 51°14.992 2°43.751 -999 0.069375 0.367378 -0.687152
2009-05-20 05:11:06 51°14.99 2°43.725 -999 0.069375 0.367378 -0.687152
2009-05-20 05:11:11 51°14.988 2°43.698 -999 0.069375 0.367384 -0.687152
2009-05-20 05:11:16 51°14.987 2°43.671 -999 0.069375 0.367396 -0.687152
2009-05-20 05:11:21 51°14.985 2°43.645 -999 0.069375 0.367403 -0.687152
2009-05-20 05:11:26 51°14.983 2°43.618 -999 0.069375 0.367403 -0.687152
2009-05-20 05:11:31 51°14.981 2°43.591 -999 0.069375 0.367409 -0.687152
2009-05-20 05:11:36 51°14.98 2°43.565 -999 0.069375 0.367415 -0.687152
2009-05-20 05:11:41 51°14.978 2°43.538 -999 0.069375 0.367421 -0.687152
2009-05-20 05:11:46 51°14.977 2°43.512 -999 0.069375 0.367427 -0.687152
2009-05-20 05:11:51 51°14.975 2°43.485 -999 0.069273 0.366865 -0.687152
2009-05-20 05:11:56 51°14.974 2°43.458 -999 0.069273 0.366865 -0.687152
2009-05-20 05:12:01 51°14.972 2°43.431 -999 0.069273 0.366872 -0.687152
2009-05-20 05:12:06 51°14.971 2°43.405 -999 0.069273 0.366872 -0.687152
2009-05-20 05:12:11 51°14.97 2°43.378 -999 0.069273 0.366878 -0.687152
2009-05-20 05:12:16 51°14.968 2°43.352 -999 0.069273 0.366878 -0.687152
2009-05-20 05:12:21 51°14.966 2°43.325 -999 0.069273 0.366884 -0.721976
2009-05-20 05:12:27 51°14.964 2°43.293 -999 0.069273 0.366884 -0.721976
2009-05-20 05:12:31 51°14.963 2°43.272 -999 0.069273 0.366884 -0.687152
2009-05-20 05:12:36 51°14.962 2°43.246 -999 0.069273 0.36689 -0.687152
2009-05-20 05:12:41 51°14.96 2°43.219 -999 0.069273 0.366896 -0.687152
2009-05-20 05:12:46 51°14.958 2°43.192 -999 0.069273 0.366903 -0.687152
2009-05-20 05:12:51 51°14.956 2°43.165 -999 0.069273 0.366903 -0.687152
2009-05-20 05:12:56 51°14.954 2°43.139 -999 0.069273 0.366903 -0.687152
2009-05-20 05:13:01 51°14.952 2°43.112 -999 0.069273 0.366909 -0.687152
2009-05-20 05:13:06 51°14.951 2°43.086 -999 0.069273 0.366915 -0.687152
2009-05-20 05:13:11 51°14.949 2°43.06 -999 0.069273 0.366915 -0.687152
2009-05-20 05:13:15 51°14.948 2°43.038 -999 0.069273 0.366927 -0.687152
2009-05-20 05:13:20 51°14.946 2°43.012 -999 0.069273 0.366927 -0.687152
2009-05-20 05:13:25 51°14.944 2°42.985 -999 0.069273 0.366927 -0.687152
2009-05-20 05:13:30 51°14.942 2°42.959 -999 0.069273 0.366934 -0.652328
2009-05-20 05:13:35 51°14.94 2°42.933 -999 0.069273 0.36694 -0.687152
2009-05-20 05:13:40 51°14.938 2°42.906 -999 0.069273 0.36694 -0.687152
2009-05-20 05:13:44 51°14.937 2°42.885 -999 0.069273 0.366946 -0.687152
2009-05-20 05:13:49 51°14.935 2°42.858 -999 0.069273 0.366952 -0.687152
2009-05-20 05:13:54 51°14.933 2°42.832 -999 0.069273 0.366952 -0.687152
2009-05-20 05:13:59 51°14.931 2°42.806 -999 0.069273 0.366952 -0.687152
2009-05-20 05:14:04 51°14.93 2°42.779 -999 0.069273 0.366965 -0.687152
2009-05-20 05:14:09 51°14.928 2°42.753 -999 0.069273 0.366971 -0.687152
2009-05-20 05:14:14 51°14.925 2°42.727 -999 0.069273 0.366977 -0.687152
2009-05-20 05:14:19 51°14.923 2°42.701 -999 0.069273 0.366977 -0.687152
2009-05-20 05:14:23 51°14.921 2°42.68 -999 0.069273 0.366977 -0.687152
2009-05-20 05:14:28 51°14.919 2°42.653 -999 0.069273 0.366983 -0.687152
2009-05-20 05:14:33 51°14.916 2°42.627 -999 0.069273 0.366983 -0.687152
2009-05-20 05:14:38 51°14.914 2°42.601 -999 0.069273 0.366983 -0.687152
2009-05-20 05:14:43 51°14.912 2°42.574 -999 0.069273 0.36699 -0.687152
2009-05-20 05:14:47 51°14.911 2°42.553 -999 0.069273 0.366996 -0.687152
2009-05-20 05:14:52 51°14.909 2°42.527 -999 0.069273 0.366996 -0.687152
2009-05-20 05:14:57 51°14.907 2°42.5 -999 0.069273 0.367008 -0.687152
2009-05-20 05:15:03 51°14.905 2°42.469 -999 0.069273 0.367008 -0.687152
2009-05-20 05:15:07 51°14.904 2°42.447 -999 0.069273 0.367021 -0.687152
2009-05-20 05:15:12 51°14.902 2°42.421 -999 0.069273 0.367027 -0.687152
2009-05-20 05:15:17 51°14.9 2°42.395 -999 0.069273 0.367021 -0.687152
2009-05-20 05:15:23 51°14.898 2°42.363 -999 0.069273 0.367021 -0.687152
2009-05-20 05:15:27 51°14.896 2°42.342 -999 0.069273 0.367027 -0.687152
2009-05-20 05:15:33 51°14.894 2°42.311 -999 0.069375 0.367589 -0.687152
2009-05-20 05:15:37 51°14.893 2°42.289 -999 0.069273 0.367033 -0.687152
2009-05-20 05:15:43 51°14.891 2°42.258 -999 0.069273 0.367039 -0.687152
2009-05-20 05:15:47 51°14.89 2°42.236 -999 0.069273 0.367039 -0.687152
2009-05-20 05:15:53 51°14.888 2°42.205 -999 0.069273 0.367039 -0.687152
2009-05-20 05:15:58 51°14.886 2°42.179 -999 0.069273 0.367046 -0.687152
2009-05-20 05:16:03 51°14.885 2°42.152 -999 0.069273 0.367052 -0.687152
2009-05-20 05:16:07 51°14.883 2°42.131 -999 0.069273 0.367058 -0.687152
2009-05-20 05:16:12 51°14.881 2°42.104 -999 0.069273 0.367058 -0.687152
2009-05-20 05:16:18 51°14.879 2°42.072 -999 0.069273 0.367064 -0.687152
2009-05-20 05:16:23 51°14.878 2°42.046 -999 0.069273 0.367064 -0.687152
2009-05-20 05:16:27 51°14.876 2°42.025 -999 0.069273 0.367064 -0.687152
2009-05-20 05:16:32 51°14.875 2°41.999 -999 0.069273 0.367077 -0.687152
2009-05-20 05:16:37 51°14.873 2°41.973 -999 0.069273 0.367083 -0.687152
2009-05-20 05:16:43 51°14.871 2°41.941 -999 0.069273 0.367083 -0.687152
2009-05-20 05:16:47 51°14.869 2°41.92 -999 0.069273 0.367083 -0.687152
2009-05-20 05:16:51 51°14.868 2°41.899 -999 0.069273 0.367083 -0.687152
2009-05-20 05:16:57 51°14.866 2°41.868 -999 0.069273 0.367089 -0.687152
2009-05-20 05:17:03 51°14.864 2°41.836 -999 0.069273 0.367095 -0.687152
2009-05-20 05:17:07 51°14.863 2°41.815 -999 0.069273 0.367102 -0.687152
2009-05-20 05:17:12 51°14.861 2°41.789 -999 0.069273 0.367108 -0.687152
2009-05-20 05:17:17 51°14.859 2°41.762 -999 0.069273 0.367114 -0.687152
2009-05-20 05:17:23 51°14.857 2°41.73 -999 0.069273 0.367114 -0.687152
2009-05-20 05:17:28 51°14.856 2°41.704 -999 0.069273 0.367114 -0.687152
2009-05-20 05:17:33 51°14.853 2°41.678 -999 0.069273 0.36712 -0.687152
2009-05-20 05:17:38 51°14.851 2°41.652 -999 0.069273 0.367126 -0.687152
2009-05-20 05:17:43 51°14.849 2°41.626 -999 0.069273 0.367126 -0.687152
2009-05-20 05:17:47 51°14.848 2°41.605 -999 0.069273 0.367133 -0.687152
2009-05-20 05:17:53 51°14.846 2°41.573 -999 0.069273 0.367133 -0.687152
2009-05-20 05:17:58 51°14.844 2°41.547 -999 0.069273 0.367133 -0.687152
2009-05-20 05:18:03 51°14.843 2°41.521 -999 0.069273 0.367139 -0.687152
2009-05-20 05:18:07 51°14.841 2°41.5 -999 0.069273 0.367145 -0.687152
2009-05-20 05:18:12 51°14.84 2°41.474 -999 0.069273 0.367151 -0.687152
2009-05-20 05:18:18 51°14.838 2°41.442 -999 0.069273 0.367158 -0.687152
2009-05-20 05:18:23 51°14.836 2°41.416 -999 0.069273 0.367158 -0.687152
2009-05-20 05:18:27 51°14.835 2°41.395 -999 0.069273 0.367158 -0.687152
2009-05-20 05:18:32 51°14.833 2°41.369 -999 0.069273 0.367164 -0.687152
2009-05-20 05:18:38 51°14.832 2°41.338 -999 0.069273 0.367164 -0.687152
2009-05-20 05:18:43 51°14.83 2°41.311 -999 0.069273 0.367176 -0.687152
2009-05-20 05:18:47 51°14.829 2°41.29 -999 0.069273 0.367182 -0.687152
2009-05-20 05:18:52 51°14.827 2°41.264 -999 0.069273 0.367182 -0.687152
2009-05-20 05:18:58 51°14.825 2°41.233 -999 0.069273 0.367182 -0.687152
2009-05-20 05:19:03 51°14.824 2°41.207 -999 0.069273 0.367189 -0.687152
2009-05-20 05:19:08 51°14.822 2°41.181 -999 0.069273 0.367189 -0.687152
2009-05-20 05:19:12 51°14.821 2°41.16 -999 0.069273 0.367195 -0.687152
2009-05-20 05:19:18 51°14.819 2°41.129 -999 0.069273 0.367201 -0.652328
2009-05-20 05:19:23 51°14.817 2°41.103 -999 0.069273 0.367201 -0.652328
2009-05-20 05:19:28 51°14.816 2°41.077 -999 0.069273 0.367207 -0.687152
2009-05-20 05:19:32 51°14.815 2°41.056 -999 0.069273 0.367207 -0.687152
2009-05-20 05:19:38 51°14.813 2°41.025 -999 0.069273 0.367214 -0.687152
2009-05-20 05:19:43 51°14.811 2°40.999 -999 0.069273 0.367214 -0.687152
2009-05-20 05:19:47 51°14.81 2°40.978 -999 0.069273 0.367232 -0.687152
2009-05-20 05:19:53 51°14.805 2°40.947 -999 0.069273 0.367232 -0.687152
2009-05-20 05:19:58 51°14.802 2°40.922 -999 0.069273 0.367232 -0.687152
2009-05-20 05:20:03 51°14.798 2°40.896 -999 0.069273 0.367238 -0.687152
2009-05-20 05:20:07 51°14.794 2°40.876 -999 0.069273 0.367238 -0.687152
2009-05-20 05:20:13 51°14.789 2°40.846 -999 0.069273 0.367245 -0.687152
2009-05-20 05:20:18 51°14.784 2°40.821 -999 0.069273 0.367245 -0.687152
2009-05-20 05:20:23 51°14.779 2°40.796 -999 0.069273 0.367245 -0.687152
2009-05-20 05:20:27 51°14.774 2°40.776 -999 0.069273 0.367245 -0.687152
2009-05-20 05:20:32 51°14.769 2°40.751 -999 0.069273 0.367251 -0.687152
2009-05-20 05:20:38 51°14.762 2°40.722 -999 0.069273 0.367257 -0.652328
2009-05-20 05:20:43 51°14.757 2°40.697 -999 0.069273 0.367257 -0.687152
2009-05-20 05:20:47 51°14.752 2°40.677 -999 0.069273 0.367263 -0.687152
2009-05-20 05:20:52 51°14.747 2°40.652 -999 0.069273 0.367263 -0.687152
2009-05-20 05:20:58 51°14.739 2°40.623 -999 0.069273 0.36727 -0.687152
2009-05-20 05:21:03 51°14.734 2°40.598 -999 0.069273 0.36727 -0.687152
2009-05-20 05:21:07 51°14.729 2°40.578 -999 0.069273 0.367282 -0.687152
2009-05-20 05:21:11 51°14.725 2°40.558 -999 0.069273 0.367288 -0.687152
2009-05-20 05:21:17 51°14.718 2°40.529 -999 0.069273 0.367288 -0.687152
2009-05-20 05:21:23 51°14.711 2°40.499 -999 0.069273 0.367288 -0.687152
2009-05-20 05:21:27 51°14.706 2°40.479 -999 0.069273 0.367294 -0.687152
2009-05-20 05:21:32 51°14.701 2°40.455 -999 0.069273 0.367301 -0.687152
2009-05-20 05:21:37 51°14.695 2°40.43 -999 0.069273 0.367307 -0.687152
2009-05-20 05:21:43 51°14.689 2°40.4 -999 0.069273 0.367307 -0.687152
2009-05-20 05:21:47 51°14.684 2°40.38 -999 0.069273 0.367313 -0.687152
2009-05-20 05:21:52 51°14.679 2°40.355 -999 0.069273 0.367313 -0.687152
2009-05-20 05:21:58 51°14.672 2°40.325 -999 0.069273 0.367319 -0.687152
2009-05-20 05:22:03 51°14.667 2°40.301 -999 0.069273 0.367319 -0.687152
2009-05-20 05:22:07 51°14.662 2°40.281 -999 0.069273 0.367326 -0.687152
2009-05-20 05:22:13 51°14.656 2°40.251 -999 0.069273 0.367332 -0.687152
2009-05-20 05:22:17 51°14.652 2°40.231 -999 0.069273 0.367338 -0.687152
2009-05-20 05:22:23 51°14.645 2°40.201 -999 0.069273 0.367338 -0.687152
2009-05-20 05:22:27 51°14.641 2°40.181 -999 0.069273 0.367344 -0.687152
2009-05-20 05:22:33 51°14.634 2°40.152 -999 0.069273 0.367351 -0.687152
2009-05-20 05:22:38 51°14.629 2°40.127 -999 0.069273 0.367357 -0.687152
2009-05-20 05:22:43 51°14.624 2°40.102 -999 0.069273 0.367363 -0.687152
2009-05-20 05:22:47 51°14.619 2°40.082 -999 0.069273 0.367369 -0.687152
2009-05-20 05:22:51 51°14.614 2°40.062 -999 0.069273 0.367369 -0.687152
2009-05-20 05:22:58 51°14.606 2°40.028 -999 0.069273 0.367375 -0.687152
2009-05-20 05:23:03 51°14.6 2°40.004 -999 0.069273 0.367375 -0.687152
2009-05-20 05:23:07 51°14.596 2°39.984 -999 0.069273 0.367382 -0.687152
2009-05-20 05:23:12 51°14.59 2°39.959 -999 0.069273 0.367388 -0.687152
2009-05-20 05:23:17 51°14.584 2°39.935 -999 0.069273 0.367394 -0.687152
2009-05-20 05:23:23 51°14.577 2°39.905 -999 0.069273 0.367394 -0.687152
2009-05-20 05:23:27 51°14.573 2°39.885 -999 0.069273 0.367394 -0.687152
2009-05-20 05:23:33 51°14.567 2°39.855 -999 0.069273 0.367394 -0.687152
2009-05-20 05:23:37 51°14.562 2°39.835 -999 0.069273 0.367407 -0.687152
2009-05-20 05:23:43 51°14.556 2°39.805 -999 0.069273 0.367407 -0.687152
2009-05-20 05:23:47 51°14.552 2°39.785 -999 0.069273 0.367425 -0.687152
2009-05-20 05:23:53 51°14.545 2°39.755 -999 0.069273 0.367425 -0.687152
2009-05-20 05:23:57 51°14.541 2°39.735 -999 0.069273 0.367432 -0.687152
2009-05-20 05:24:03 51°14.534 2°39.705 -999 0.069273 0.367438 -0.687152
2009-05-20 05:24:07 51°14.53 2°39.686 -999 0.069273 0.367444 -0.687152
2009-05-20 05:24:13 51°14.523 2°39.656 -999 0.069273 0.36745 -0.687152
2009-05-20 05:24:17 51°14.519 2°39.636 -999 0.069273 0.36745 -0.687152
2009-05-20 05:24:23 51°14.512 2°39.606 -999 0.069273 0.36745 -0.687152
2009-05-20 05:24:28 51°14.507 2°39.582 -999 0.069273 0.367456 -0.687152
2009-05-20 05:24:33 51°14.501 2°39.557 -999 0.069273 0.367463 -0.687152
2009-05-20 05:24:38 51°14.495 2°39.532 -999 0.069273 0.367469 -0.687152
2009-05-20 05:24:43 51°14.489 2°39.507 -999 0.069273 0.367469 -0.687152
2009-05-20 05:24:47 51°14.485 2°39.487 -999 0.069273 0.367475 -0.687152
2009-05-20 05:24:53 51°14.478 2°39.457 -999 0.069273 0.367475 -0.687152
2009-05-20 05:24:58 51°14.473 2°39.432 -999 0.069273 0.367481 -0.687152
2009-05-20 05:25:03 51°14.467 2°39.407 -999 0.069273 0.367488 -0.687152
2009-05-20 05:25:07 51°14.463 2°39.387 -999 0.069273 0.367494 -0.687152
2009-05-20 05:25:12 51°14.457 2°39.363 -999 0.069273 0.3675 -0.687152
2009-05-20 05:25:18 51°14.45 2°39.333 -999 0.069273 0.367513 -0.687152
2009-05-20 05:25:23 51°14.444 2°39.308 -999 0.069273 0.367513 -0.687152
2009-05-20 05:25:27 51°14.44 2°39.288 -999 0.069273 0.367513 -0.687152
2009-05-20 05:25:32 51°14.434 2°39.263 -999 0.069273 0.367519 -0.687152
2009-05-20 05:25:38 51°14.428 2°39.233 -999 0.069273 0.367525 -0.687152
2009-05-20 05:25:43 51°14.422 2°39.208 -999 0.069273 0.367531 -0.687152
2009-05-20 05:25:48 51°14.417 2°39.183 -999 0.069273 0.367538 -0.687152
2009-05-20 05:25:52 51°14.412 2°39.163 -999 0.069273 0.367538 -0.687152
2009-05-20 05:25:58 51°14.406 2°39.133 -999 0.069273 0.367544 -0.687152
2009-05-20 05:26:03 51°14.4 2°39.108 -999 0.069273 0.36755 -0.652328
2009-05-20 05:26:08 51°14.394 2°39.082 -999 0.069273 0.367556 -0.687152